| time (UTC) | temp F | wind direction | speed MPH | gust MPH | rain 1hr in | rain 24hr in | rain mn in | humidity % | barometer mb |
| 20260508220445 | 52 | 45 | 1.0 | 2.0 | 0.00 | 0.00 | 0.00 | 76 | 1022.4 |
| 20260508220255 | 52 | 45 | 2.0 | 4.0 | 0.00 | 0.00 | 0.00 | 76 | 1022.3 |
| 20260508220225 | 52 | 45 | 2.0 | 4.0 | 0.00 | 0.00 | 0.00 | 75 | 1022.3 |
| 20260508220118 | 52 | 45 | 2.0 | 4.0 | 0.00 | 0.00 | 0.00 | 75 | 1022.3 |
| 20260508215936 | 52 | 45 | 2.0 | 4.0 | 0.00 | 0.00 | 0.00 | 75 | 1022.3 |
| 20260508215744 | 52 | 45 | 2.0 | 4.0 | 0.00 | 0.00 | 0.00 | 75 | 1022.3 |
| 20260508215545 | 52 | 22 | 2.0 | 5.0 | 0.00 | 0.00 | 0.00 | 75 | 1022.3 |
| 20260508215359 | 52 | 45 | 2.0 | 5.0 | 0.00 | 0.00 | 0.00 | 76 | 1022.4 |
| 20260508215210 | 52 | 22 | 2.0 | 5.0 | 0.00 | 0.00 | 0.00 | 75 | 1022.4 |
| 20260508215030 | 52 | 68 | 2.0 | 4.0 | 0.00 | 0.00 | 0.00 | 76 | 1022.4 |
| 20260508214840 | 52 | 22 | 1.0 | 5.0 | 0.00 | 0.00 | 0.00 | 75 | 1022.3 |
| 20260508214650 | 52 | 45 | 1.0 | 5.0 | 0.00 | 0.00 | 0.00 | 76 | 1022.4 |
| 20260508214546 | 53 | 45 | 1.0 | 5.0 | 0.00 | 0.00 | 0.00 | 75 | 1022.3 |
| 20260508214502 | 53 | 22 | 1.0 | 5.0 | 0.00 | 0.00 | 0.00 | 75 | 1022.3 |
| 20260508214318 | 53 | 45 | 1.0 | 3.0 | 0.00 | 0.00 | 0.00 | 75 | 1022.3 |
| 20260508214118 | 53 | 45 | 1.0 | 3.0 | 0.00 | 0.00 | 0.00 | 75 | 1022.3 |
| 20260508213930 | 53 | 45 | 1.0 | 3.0 | 0.00 | 0.00 | 0.00 | 75 | 1022.3 |
| 20260508213741 | 53 | 45 | 1.0 | 3.0 | 0.00 | 0.00 | 0.00 | 75 | 1022.3 |
| 20260508213605 | 53 | 45 | 1.0 | 2.0 | 0.00 | 0.00 | 0.00 | 75 | 1022.2 |
| 20260508213413 | 53 | 45 | 1.0 | 2.0 | 0.00 | 0.00 | 0.00 | 74 | 1022.2 |
| 20260508213230 | 53 | 45 | 1.0 | 2.0 | 0.00 | 0.00 | 0.00 | 74 | 1022.3 |
| 20260508213039 | 53 | 45 | 1.0 | 5.0 | 0.00 | 0.00 | 0.00 | 74 | 1022.3 |
| 20260508212936 | 53 | 45 | 1.0 | 5.0 | 0.00 | 0.00 | 0.00 | 73 | 1022.3 |
| 20260508212855 | 53 | 45 | 1.0 | 5.0 | 0.00 | 0.00 | 0.00 | 73 | 1022.3 |
| 20260508212710 | 53 | 45 | 1.0 | 5.0 | 0.00 | 0.00 | 0.00 | 73 | 1022.3 |
| 20260508212530 | 53 | 45 | 1.0 | 5.0 | 0.00 | 0.00 | 0.00 | 73 | 1022.3 |
| 20260508212339 | 53 | 22 | 1.0 | 4.0 | 0.00 | 0.00 | 0.00 | 73 | 1022.3 |
| 20260508212155 | 53 | 22 | 1.0 | 4.0 | 0.00 | 0.00 | 0.00 | 73 | 1022.3 |
| 20260508211959 | 53 | 22 | 1.0 | 4.0 | 0.00 | 0.00 | 0.00 | 73 | 1022.3 |
| 20260508211810 | 53 | 22 | 2.0 | 2.0 | 0.00 | 0.00 | 0.00 | 73 | 1022.2 |
| 20260508211615 | 53 | 68 | 2.0 | 2.0 | 0.00 | 0.00 | 0.00 | 73 | 1022.3 |
| 20260508211437 | 53 | 68 | 2.0 | 5.0 | 0.00 | 0.00 | 0.00 | 73 | 1022.3 |
| 20260508211239 | 53 | 68 | 2.0 | 5.0 | 0.00 | 0.00 | 0.00 | 73 | 1022.3 |
| 20260508211209 | 53 | 68 | 2.0 | 5.0 | 0.00 | 0.00 | 0.00 | 73 | 1022.3 |
| 20260508211048 | 53 | 68 | 2.0 | 5.0 | 0.00 | 0.00 | 0.00 | 73 | 1022.3 |
| 20260508210910 | 53 | 90 | 2.0 | 5.0 | 0.00 | 0.00 | 0.00 | 73 | 1022.3 |
| 20260508210719 | 53 | 90 | 2.0 | 5.0 | 0.00 | 0.00 | 0.00 | 73 | 1022.3 |
| 20260508210530 | 53 | 45 | 2.0 | 5.0 | 0.00 | 0.00 | 0.00 | 74 | 1022.3 |
| 20260508210345 | 53 | 68 | 2.0 | 2.0 | 0.00 | 0.00 | 0.00 | 74 | 1022.2 |
| 20260508210154 | 53 | 68 | 2.0 | 2.0 | 0.00 | 0.00 | 0.00 | 74 | 1022.3 |
| 20260508210013 | 53 | 68 | 2.0 | 5.0 | 0.00 | 0.00 | 0.00 | 74 | 1022.3 |
| 20260508205822 | 53 | 68 | 2.0 | 5.0 | 0.00 | 0.00 | 0.00 | 74 | 1022.3 |
| 20260508205633 | 53 | 68 | 2.0 | 5.0 | 0.00 | 0.00 | 0.00 | 74 | 1022.4 |
| 20260508205437 | 53 | 22 | 1.0 | 5.0 | 0.00 | 0.00 | 0.00 | 74 | 1022.2 |
| 20260508205424 | 53 | 22 | 1.0 | 5.0 | 0.00 | 0.00 | 0.00 | 74 | 1022.3 |
| 20260508205238 | 53 | 22 | 1.0 | 5.0 | 0.00 | 0.00 | 0.00 | 74 | 1022.3 |
| 20260508205040 | 53 | 22 | 1.0 | 5.0 | 0.00 | 0.00 | 0.00 | 75 | 1022.3 |
| 20260508204847 | 53 | 68 | 1.0 | 4.0 | 0.00 | 0.00 | 0.00 | 75 | 1022.4 |
| 20260508204659 | 53 | 22 | 1.0 | 3.0 | 0.00 | 0.00 | 0.00 | 75 | 1022.4 |
| 20260508204503 | 53 | 45 | 1.0 | 3.0 | 0.00 | 0.00 | 0.00 | 75 | 1022.4 |
| 20260508204327 | 53 | 22 | 1.0 | 3.0 | 0.00 | 0.00 | 0.00 | 75 | 1022.3 |
| 20260508204151 | 53 | 22 | 1.0 | 3.0 | 0.00 | 0.00 | 0.00 | 74 | 1022.4 |
| 20260508204006 | 53 | 22 | 1.0 | 4.0 | 0.00 | 0.00 | 0.00 | 74 | 1022.3 |
| 20260508203808 | 53 | 22 | 1.0 | 4.0 | 0.00 | 0.00 | 0.00 | 74 | 1022.3 |
| 20260508203634 | 53 | 22 | 1.0 | 4.0 | 0.00 | 0.00 | 0.00 | 74 | 1022.3 |
| 20260508203617 | 53 | 22 | 1.0 | 4.0 | 0.00 | 0.00 | 0.00 | 74 | 1022.4 |
| 20260508203438 | 53 | 22 | 1.0 | 2.0 | 0.00 | 0.00 | 0.00 | 74 | 1022.3 |
| 20260508203303 | 53 | 22 | 1.0 | 2.0 | 0.00 | 0.00 | 0.00 | 74 | 1022.3 |
| 20260508203123 | 53 | 22 | 1.0 | 2.0 | 0.00 | 0.00 | 0.00 | 74 | 1022.3 |
| 20260508202925 | 53 | 22 | 2.0 | 3.0 | 0.00 | 0.00 | 0.00 | 73 | 1022.2 |
| 20260508202740 | 53 | 22 | 2.0 | 3.0 | 0.00 | 0.00 | 0.00 | 73 | 1022.2 |
| 20260508202555 | 53 | 22 | 2.0 | 5.0 | 0.00 | 0.00 | 0.00 | 73 | 1022.2 |
| 20260508202355 | 53 | 22 | 2.0 | 5.0 | 0.00 | 0.00 | 0.00 | 73 | 1022.2 |
| 20260508202210 | 53 | 22 | 2.0 | 5.0 | 0.00 | 0.00 | 0.00 | 73 | 1022.3 |
| 20260508202016 | 53 | 45 | 1.0 | 3.0 | 0.00 | 0.00 | 0.00 | 73 | 1022.1 |
| 20260508201820 | 53 | 45 | 2.0 | 3.0 | 0.00 | 0.00 | 0.00 | 73 | 1022.2 |
| 20260508201631 | 53 | 45 | 1.0 | 2.0 | 0.00 | 0.00 | 0.00 | 73 | 1022.1 |
| 20260508201445 | 53 | 45 | 1.0 | 2.0 | 0.00 | 0.00 | 0.00 | 73 | 1022.1 |
| 20260508201305 | 53 | 45 | 1.0 | 2.0 | 0.00 | 0.00 | 0.00 | 73 | 1022.1 |
| 20260508201118 | 53 | 45 | 1.0 | 2.0 | 0.00 | 0.00 | 0.00 | 73 | 1022.1 |
| 20260508200925 | 53 | 45 | 1.0 | 2.0 | 0.00 | 0.00 | 0.00 | 73 | 1022.1 |
| 20260508200740 | 53 | 45 | 1.0 | 2.0 | 0.00 | 0.00 | 0.00 | 73 | 1022.1 |
| 20260508200540 | 53 | 45 | 1.0 | 2.0 | 0.00 | 0.00 | 0.00 | 73 | 1022.1 |
| 20260508200340 | 53 | 45 | 1.0 | 2.0 | 0.00 | 0.00 | 0.00 | 73 | 1022.0 |
| 20260508200142 | 53 | 45 | 1.0 | 2.0 | 0.00 | 0.00 | 0.00 | 73 | 1022.1 |
| 20260508195955 | 53 | 45 | 1.0 | 2.0 | 0.00 | 0.00 | 0.00 | 73 | 1022.0 |
| 20260508195810 | 53 | 45 | 2.0 | 2.0 | 0.00 | 0.00 | 0.00 | 72 | 1022.1 |
| 20260508195613 | 53 | 45 | 2.0 | 5.0 | 0.00 | 0.00 | 0.00 | 72 | 1022.1 |
| 20260508195417 | 54 | 22 | 2.0 | 5.0 | 0.00 | 0.00 | 0.00 | 72 | 1022.0 |
| 20260508195225 | 54 | 22 | 1.0 | 5.0 | 0.00 | 0.00 | 0.00 | 72 | 1022.1 |
| 20260508195040 | 54 | 0 | 1.0 | 5.0 | 0.00 | 0.00 | 0.00 | 72 | 1022.0 |
| 20260508194845 | 54 | 68 | 1.0 | 4.0 | 0.00 | 0.00 | 0.00 | 72 | 1022.1 |
| 20260508194655 | 54 | 22 | 1.0 | 4.0 | 0.00 | 0.00 | 0.00 | 72 | 1022.0 |
| 20260508194547 | 54 | 22 | 1.0 | 4.0 | 0.00 | 0.00 | 0.00 | 72 | 1022.0 |
| 20260508194515 | 54 | 22 | 1.0 | 4.0 | 0.00 | 0.00 | 0.00 | 72 | 1021.9 |
| 20260508194324 | 54 | 22 | 1.0 | 5.0 | 0.00 | 0.00 | 0.00 | 72 | 1022.0 |
| 20260508194135 | 54 | 22 | 1.0 | 5.0 | 0.00 | 0.00 | 0.00 | 72 | 1022.0 |
| 20260508193943 | 54 | 45 | 1.0 | 5.0 | 0.00 | 0.00 | 0.00 | 72 | 1022.0 |
| 20260508193805 | 54 | 45 | 1.0 | 2.0 | 0.00 | 0.00 | 0.00 | 72 | 1022.1 |
| 20260508193605 | 54 | 45 | 1.0 | 5.0 | 0.00 | 0.00 | 0.00 | 72 | 1022.0 |
| 20260508193404 | 54 | 45 | 1.0 | 5.0 | 0.00 | 0.00 | 0.00 | 71 | 1022.0 |
| 20260508193225 | 54 | 45 | 1.0 | 5.0 | 0.00 | 0.00 | 0.00 | 71 | 1021.9 |
| 20260508193050 | 54 | 90 | 1.0 | 4.0 | 0.00 | 0.00 | 0.00 | 71 | 1022.0 |
| 20260508192848 | 54 | 90 | 1.0 | 4.0 | 0.00 | 0.00 | 0.00 | 71 | 1021.9 |
| 20260508192822 | 54 | 90 | 1.0 | 4.0 | 0.00 | 0.00 | 0.00 | 71 | 1021.9 |
| 20260508192655 | 54 | 45 | 1.0 | 5.0 | 0.00 | 0.00 | 0.00 | 71 | 1021.9 |
| 20260508192505 | 54 | 45 | 1.0 | 5.0 | 0.00 | 0.00 | 0.00 | 71 | 1021.9 |
| 20260508192325 | 54 | 45 | 1.0 | 5.0 | 0.00 | 0.00 | 0.00 | 70 | 1021.9 |
| 20260508192140 | 54 | 68 | 0.0 | 3.0 | 0.00 | 0.00 | 0.00 | 70 | 1021.9 |
| 20260508191946 | 54 | 68 | 0.0 | 3.0 | 0.00 | 0.00 | 0.00 | 70 | 1021.8 |
| 20260508191810 | 54 | 90 | 0.0 | 2.0 | 0.00 | 0.00 | 0.00 | 70 | 1021.8 |
| 20260508191627 | 54 | 90 | 0.0 | 1.0 | 0.00 | 0.00 | 0.00 | 70 | 1021.8 |
| 20260508191430 | 54 | 90 | 0.0 | 2.0 | 0.00 | 0.00 | 0.00 | 69 | 1021.7 |
| 20260508191245 | 54 | 90 | 1.0 | 2.0 | 0.00 | 0.00 | 0.00 | 70 | 1021.8 |
| 20260508191107 | 54 | 90 | 1.0 | 2.0 | 0.00 | 0.00 | 0.00 | 69 | 1021.8 |
| 20260508191002 | 54 | 90 | 1.0 | 2.0 | 0.00 | 0.00 | 0.00 | 69 | 1021.7 |
| 20260508190915 | 54 | 90 | 1.0 | 2.0 | 0.00 | 0.00 | 0.00 | 69 | 1021.8 |
| 20260508190725 | 54 | 90 | 1.0 | 2.0 | 0.00 | 0.00 | 0.00 | 69 | 1021.8 |
| 20260508190540 | 54 | 90 | 1.0 | 2.0 | 0.00 | 0.00 | 0.00 | 69 | 1021.8 |
| 20260508190345 | 54 | 90 | 0.0 | 2.0 | 0.00 | 0.00 | 0.00 | 69 | 1021.7 |
| 20260508190150 | 54 | 90 | 0.0 | 2.0 | 0.00 | 0.00 | 0.00 | 68 | 1021.8 |
| 20260508190002 | 54 | 90 | 0.0 | 1.0 | 0.00 | 0.00 | 0.00 | 69 | 1021.7 |
| 20260508185818 | 54 | 90 | 0.0 | 2.0 | 0.00 | 0.00 | 0.00 | 68 | 1021.7 |
| 20260508185633 | 54 | 90 | 0.0 | 2.0 | 0.00 | 0.00 | 0.00 | 68 | 1021.7 |
| 20260508185435 | 54 | 90 | 0.0 | 2.0 | 0.00 | 0.00 | 0.00 | 68 | 1021.7 |
| 20260508185339 | 55 | 90 | 0.0 | 2.0 | 0.00 | 0.00 | 0.00 | 68 | 1021.6 |
| 20260508185250 | 55 | 90 | 0.0 | 2.0 | 0.00 | 0.00 | 0.00 | 68 | 1021.6 |
| 20260508185050 | 55 | 90 | 0.0 | 2.0 | 0.00 | 0.00 | 0.00 | 68 | 1021.6 |
| 20260508184855 | 55 | 90 | 0.0 | 2.0 | 0.00 | 0.00 | 0.00 | 67 | 1021.6 |
| 20260508184707 | 55 | 90 | 0.0 | 2.0 | 0.00 | 0.00 | 0.00 | 68 | 1021.6 |
| 20260508184530 | 55 | 90 | 0.0 | 2.0 | 0.00 | 0.00 | 0.00 | 67 | 1021.6 |
| 20260508184335 | 55 | 90 | 0.0 | 2.0 | 0.00 | 0.00 | 0.00 | 67 | 1021.7 |
| 20260508184134 | 55 | 45 | 0.0 | 1.0 | 0.00 | 0.00 | 0.00 | 68 | 1021.6 |
| 20260508183950 | 55 | 45 | 0.0 | 2.0 | 0.00 | 0.00 | 0.00 | 67 | 1021.6 |
| 20260508183800 | 55 | 45 | 0.0 | 2.0 | 0.00 | 0.00 | 0.00 | 67 | 1021.5 |
| 20260508183721 | 55 | 45 | 0.0 | 2.0 | 0.00 | 0.00 | 0.00 | 67 | 1021.6 |
| 20260508183610 | 55 | 45 | 0.0 | 2.0 | 0.00 | 0.00 | 0.00 | 67 | 1021.6 |
| 20260508183425 | 55 | 45 | 0.0 | 1.0 | 0.00 | 0.00 | 0.00 | 68 | 1021.5 |
| 20260508183240 | 55 | 45 | 0.0 | 2.0 | 0.00 | 0.00 | 0.00 | 67 | 1021.6 |
| 20260508183045 | 55 | 45 | 1.0 | 2.0 | 0.00 | 0.00 | 0.00 | 66 | 1021.5 |
| 20260508182845 | 55 | 45 | 1.0 | 0.0 | 0.00 | 0.00 | 0.00 | 66 | 1021.5 |
| 20260508182655 | 55 | 45 | 1.0 | 5.0 | 0.00 | 0.00 | 0.00 | 66 | 1021.4 |
| 20260508182507 | 55 | 45 | 1.0 | 5.0 | 0.00 | 0.00 | 0.00 | 65 | 1021.4 |
| 20260508182319 | 55 | 45 | 1.0 | 5.0 | 0.00 | 0.00 | 0.00 | 65 | 1021.4 |
| 20260508182135 | 55 | 45 | 1.0 | 5.0 | 0.00 | 0.00 | 0.00 | 65 | 1021.4 |
| 20260508181945 | 56 | 45 | 1.0 | 2.0 | 0.00 | 0.00 | 0.00 | 65 | 1021.4 |
| 20260508181832 | 56 | 45 | 1.0 | 3.0 | 0.00 | 0.00 | 0.00 | 66 | 1021.4 |
| 20260508181800 | 56 | 45 | 1.0 | 3.0 | 0.00 | 0.00 | 0.00 | 65 | 1021.3 |
| 20260508181605 | 56 | 45 | 1.0 | 5.0 | 0.00 | 0.00 | 0.00 | 65 | 1021.3 |
| 20260508181427 | 56 | 45 | 1.0 | 5.0 | 0.00 | 0.00 | 0.00 | 65 | 1021.3 |
| 20260508181240 | 56 | 22 | 1.0 | 4.0 | 0.00 | 0.00 | 0.00 | 65 | 1021.3 |
| 20260508181047 | 56 | 338 | 1.0 | 2.0 | 0.00 | 0.00 | 0.00 | 65 | 1021.4 |
| 20260508180855 | 56 | 45 | 1.0 | 3.0 | 0.00 | 0.00 | 0.00 | 65 | 1021.3 |
| 20260508180710 | 56 | 68 | 1.0 | 2.0 | 0.00 | 0.00 | 0.00 | 65 | 1021.3 |
| 20260508180527 | 56 | 68 | 0.0 | 2.0 | 0.00 | 0.00 | 0.00 | 65 | 1021.3 |
| 20260508180335 | 56 | 68 | 1.0 | 2.0 | 0.00 | 0.00 | 0.00 | 65 | 1021.3 |
| 20260508180144 | 56 | 68 | 1.0 | 2.0 | 0.00 | 0.00 | 0.00 | 65 | 1021.3 |
| 20260508180035 | 56 | 68 | 1.0 | 3.0 | 0.00 | 0.00 | 0.00 | 65 | 1021.3 |
| 20260508175952 | 56 | 68 | 1.0 | 3.0 | 0.00 | 0.00 | 0.00 | 65 | 1021.3 |
| 20260508175805 | 56 | 45 | 1.0 | 5.0 | 0.00 | 0.00 | 0.00 | 64 | 1021.2 |
| 20260508175610 | 56 | 68 | 1.0 | 5.0 | 0.00 | 0.00 | 0.00 | 64 | 1021.2 |
| 20260508175425 | 56 | 45 | 1.0 | 5.0 | 0.00 | 0.00 | 0.00 | 63 | 1021.2 |
| 20260508175231 | 56 | 68 | 1.0 | 2.0 | 0.00 | 0.00 | 0.00 | 63 | 1021.2 |
| 20260508175045 | 56 | 68 | 1.0 | 2.0 | 0.00 | 0.00 | 0.00 | 63 | 1021.2 |
| 20260508174855 | 56 | 68 | 1.0 | 2.0 | 0.00 | 0.00 | 0.00 | 62 | 1021.2 |
| 20260508174704 | 56 | 68 | 1.0 | 4.0 | 0.00 | 0.00 | 0.00 | 62 | 1021.2 |
| 20260508174507 | 57 | 45 | 2.0 | 4.0 | 0.00 | 0.00 | 0.00 | 62 | 1021.2 |
| 20260508174315 | 57 | 45 | 2.0 | 4.0 | 0.00 | 0.00 | 0.00 | 62 | 1021.2 |
| 20260508174305 | 57 | 45 | 2.0 | 4.0 | 0.00 | 0.00 | 0.00 | 62 | 1021.1 |
| 20260508174127 | 57 | 22 | 2.0 | 4.0 | 0.00 | 0.00 | 0.00 | 61 | 1021.1 |
| 20260508173930 | 57 | 45 | 2.0 | 7.0 | 0.00 | 0.00 | 0.00 | 61 | 1021.1 |
| 20260508173750 | 57 | 45 | 2.0 | 7.0 | 0.00 | 0.00 | 0.00 | 62 | 1021.2 |
| 20260508173605 | 57 | 45 | 2.0 | 7.0 | 0.00 | 0.00 | 0.00 | 61 | 1021.1 |
| 20260508173407 | 57 | 45 | 1.0 | 5.0 | 0.00 | 0.00 | 0.00 | 62 | 1021.1 |
| 20260508173225 | 57 | 90 | 1.0 | 5.0 | 0.00 | 0.00 | 0.00 | 61 | 1021.2 |
| 20260508173035 | 57 | 45 | 1.0 | 5.0 | 0.00 | 0.00 | 0.00 | 61 | 1021.1 |
| 20260508172855 | 57 | 22 | 1.0 | 4.0 | 0.00 | 0.00 | 0.00 | 61 | 1021.2 |
| 20260508172705 | 57 | 68 | 0.0 | 2.0 | 0.00 | 0.00 | 0.00 | 62 | 1021.1 |
| 20260508172517 | 57 | 68 | 1.0 | 2.0 | 0.00 | 0.00 | 0.00 | 62 | 1021.1 |
| 20260508172510 | 57 | 68 | 1.0 | 2.0 | 0.00 | 0.00 | 0.00 | 62 | 1021.1 |
| 20260508172331 | 57 | 68 | 1.0 | 2.0 | 0.00 | 0.00 | 0.00 | 61 | 1021.1 |
| 20260508172145 | 57 | 68 | 1.0 | 5.0 | 0.00 | 0.00 | 0.00 | 61 | 1021.1 |
| 20260508171952 | 57 | 68 | 2.0 | 5.0 | 0.00 | 0.00 | 0.00 | 61 | 1021.1 |
| 20260508171807 | 57 | 45 | 2.0 | 4.0 | 0.00 | 0.00 | 0.00 | 59 | 1021.0 |
| 20260508171622 | 57 | 22 | 2.0 | 4.0 | 0.00 | 0.00 | 0.00 | 60 | 1021.0 |
| 20260508171432 | 57 | 22 | 2.0 | 4.0 | 0.00 | 0.00 | 0.00 | 60 | 1021.0 |
| 20260508171235 | 57 | 68 | 2.0 | 4.0 | 0.00 | 0.00 | 0.00 | 59 | 1020.9 |
| 20260508171052 | 57 | 0 | 3.0 | 4.0 | 0.00 | 0.00 | 0.00 | 59 | 1021.0 |
| 20260508170905 | 58 | 90 | 2.0 | 6.0 | 0.00 | 0.00 | 0.00 | 60 | 1020.9 |
| 20260508170816 | 58 | 22 | 2.0 | 6.0 | 0.00 | 0.00 | 0.00 | 59 | 1021.0 |
| 20260508170714 | 58 | 22 | 2.0 | 6.0 | 0.00 | 0.00 | 0.00 | 59 | 1020.9 |
| 20260508170517 | 58 | 45 | 2.0 | 7.0 | 0.00 | 0.00 | 0.00 | 58 | 1020.8 |
| 20260508170340 | 58 | 22 | 2.0 | 7.0 | 0.00 | 0.00 | 0.00 | 59 | 1020.9 |
| 20260508170200 | 58 | 45 | 2.0 | 7.0 | 0.00 | 0.00 | 0.00 | 59 | 1020.9 |
| 20260508170005 | 58 | 338 | 1.0 | 5.0 | 0.00 | 0.00 | 0.00 | 58 | 1020.9 |
| 20260508165809 | 58 | 22 | 2.0 | 5.0 | 0.00 | 0.00 | 0.00 | 59 | 1020.9 |
| 20260508165620 | 58 | 22 | 2.0 | 5.0 | 0.00 | 0.00 | 0.00 | 58 | 1020.8 |
| 20260508165430 | 58 | 90 | 1.0 | 2.0 | 0.00 | 0.00 | 0.00 | 58 | 1020.8 |
| 20260508165235 | 58 | 90 | 1.0 | 5.0 | 0.00 | 0.00 | 0.00 | 58 | 1020.9 |
| 20260508165113 | 58 | 90 | 1.0 | 5.0 | 0.00 | 0.00 | 0.00 | 58 | 1020.8 |
| 20260508165035 | 58 | 90 | 1.0 | 5.0 | 0.00 | 0.00 | 0.00 | 58 | 1020.8 |
| 20260508164840 | 58 | 90 | 1.0 | 5.0 | 0.00 | 0.00 | 0.00 | 57 | 1020.8 |
| 20260508164645 | 58 | 68 | 1.0 | 4.0 | 0.00 | 0.00 | 0.00 | 59 | 1020.8 |
| 20260508164501 | 58 | 68 | 1.0 | 4.0 | 0.00 | 0.00 | 0.00 | 59 | 1020.8 |
| 20260508164320 | 58 | 68 | 1.0 | 4.0 | 0.00 | 0.00 | 0.00 | 59 | 1020.8 |
| 20260508164127 | 58 | 68 | 1.0 | 4.0 | 0.00 | 0.00 | 0.00 | 57 | 1020.8 |
| 20260508163935 | 58 | 68 | 2.0 | 3.0 | 0.00 | 0.00 | 0.00 | 58 | 1020.9 |
| 20260508163745 | 58 | 45 | 2.0 | 2.0 | 0.00 | 0.00 | 0.00 | 59 | 1020.8 |
| 20260508163605 | 58 | 45 | 2.0 | 5.0 | 0.00 | 0.00 | 0.00 | 59 | 1020.8 |
| 20260508163425 | 58 | 45 | 2.0 | 5.0 | 0.00 | 0.00 | 0.00 | 59 | 1020.8 |
| 20260508163342 | 58 | 45 | 2.0 | 5.0 | 0.00 | 0.00 | 0.00 | 59 | 1020.8 |
| 20260508163245 | 58 | 45 | 3.0 | 5.0 | 0.00 | 0.00 | 0.00 | 60 | 1020.8 |
| 20260508163107 | 58 | 45 | 2.0 | 5.0 | 0.00 | 0.00 | 0.00 | 59 | 1020.9 |
| 20260508162918 | 58 | 68 | 2.0 | 6.0 | 0.00 | 0.00 | 0.00 | 58 | 1020.8 |
| 20260508162725 | 58 | 68 | 1.0 | 4.0 | 0.00 | 0.00 | 0.00 | 59 | 1020.8 |
| 20260508162527 | 58 | 68 | 2.0 | 4.0 | 0.00 | 0.00 | 0.00 | 59 | 1020.9 |
| 20260508162329 | 58 | 90 | 1.0 | 2.0 | 0.00 | 0.00 | 0.00 | 59 | 1020.9 |
| 20260508162135 | 58 | 90 | 1.0 | 5.0 | 0.00 | 0.00 | 0.00 | 58 | 1020.9 |
| 20260508161955 | 58 | 90 | 1.0 | 5.0 | 0.00 | 0.00 | 0.00 | 58 | 1020.9 |
| 20260508161806 | 58 | 90 | 1.0 | 5.0 | 0.00 | 0.00 | 0.00 | 57 | 1020.9 |
| 20260508161755 | 58 | 90 | 0.0 | 4.0 | 0.00 | 0.00 | 0.00 | 57 | 1020.8 |
| 20260508161615 | 58 | 45 | 1.0 | 2.0 | 0.00 | 0.00 | 0.00 | 58 | 1020.8 |
| 20260508161425 | 58 | 45 | 1.0 | 4.0 | 0.00 | 0.00 | 0.00 | 58 | 1020.9 |
| 20260508161247 | 58 | 45 | 1.0 | 2.0 | 0.00 | 0.00 | 0.00 | 58 | 1020.9 |
| 20260508161105 | 58 | 45 | 1.0 | 2.0 | 0.00 | 0.00 | 0.00 | 59 | 1020.9 |
| 20260508160919 | 58 | 45 | 2.0 | 6.0 | 0.00 | 0.00 | 0.00 | 58 | 1020.8 |
| 20260508160722 | 58 | 45 | 2.0 | 6.0 | 0.00 | 0.00 | 0.00 | 57 | 1020.8 |
| 20260508160525 | 58 | 22 | 2.0 | 3.0 | 0.00 | 0.00 | 0.00 | 58 | 1020.9 |
| 20260508160340 | 58 | 22 | 2.0 | 5.0 | 0.00 | 0.00 | 0.00 | 58 | 1020.9 |
| 20260508160142 | 58 | 22 | 2.0 | 5.0 | 0.00 | 0.00 | 0.00 | 58 | 1020.9 |
| 20260508160015 | 58 | 22 | 2.0 | 5.0 | 0.00 | 0.00 | 0.00 | 58 | 1020.9 |
| 20260508155945 | 58 | 22 | 2.0 | 5.0 | 0.00 | 0.00 | 0.00 | 58 | 1020.9 |
| 20260508155757 | 58 | 22 | 2.0 | 5.0 | 0.00 | 0.00 | 0.00 | 59 | 1020.8 |
| 20260508155621 | 58 | 45 | 1.0 | 6.0 | 0.00 | 0.00 | 0.00 | 58 | 1020.8 |
| 20260508155430 | 58 | 45 | 2.0 | 6.0 | 0.00 | 0.00 | 0.00 | 59 | 1020.8 |
| 20260508155235 | 58 | 22 | 2.0 | 6.0 | 0.00 | 0.00 | 0.00 | 58 | 1020.9 |
| 20260508155040 | 58 | 68 | 1.0 | 5.0 | 0.00 | 0.00 | 0.00 | 60 | 1020.8 |
| 20260508154840 | 58 | 68 | 1.0 | 5.0 | 0.00 | 0.00 | 0.00 | 59 | 1020.9 |
| 20260508154700 | 58 | 22 | 2.0 | 5.0 | 0.00 | 0.00 | 0.00 | 59 | 1020.9 |
| 20260508154507 | 58 | 68 | 2.0 | 3.0 | 0.00 | 0.00 | 0.00 | 58 | 1020.9 |
| 20260508154307 | 58 | 68 | 1.0 | 5.0 | 0.00 | 0.00 | 0.00 | 59 | 1021.0 |
| 20260508154203 | 58 | 68 | 2.0 | 5.0 | 0.00 | 0.00 | 0.00 | 58 | 1020.9 |
| 20260508154115 | 58 | 68 | 2.0 | 5.0 | 0.00 | 0.00 | 0.00 | 58 | 1020.8 |
| 20260508153930 | 58 | 68 | 2.0 | 5.0 | 0.00 | 0.00 | 0.00 | 57 | 1020.9 |
| 20260508153739 | 58 | 68 | 1.0 | 5.0 | 0.00 | 0.00 | 0.00 | 59 | 1020.8 |
| 20260508153557 | 59 | 22 | 1.0 | 3.0 | 0.00 | 0.00 | 0.00 | 57 | 1020.8 |
| 20260508153415 | 59 | 45 | 1.0 | 3.0 | 0.00 | 0.00 | 0.00 | 58 | 1020.8 |
| 20260508153220 | 59 | 45 | 1.0 | 2.0 | 0.00 | 0.00 | 0.00 | 57 | 1020.8 |
| 20260508153025 | 58 | 45 | 1.0 | 2.0 | 0.00 | 0.00 | 0.00 | 58 | 1020.8 |
| 20260508152845 | 58 | 45 | 1.0 | 2.0 | 0.00 | 0.00 | 0.00 | 57 | 1020.8 |
| 20260508152647 | 58 | 45 | 1.0 | 2.0 | 0.00 | 0.00 | 0.00 | 59 | 1020.8 |
| 20260508152617 | 58 | 45 | 1.0 | 2.0 | 0.00 | 0.00 | 0.00 | 59 | 1020.8 |
| 20260508152511 | 58 | 45 | 1.0 | 2.0 | 0.00 | 0.00 | 0.00 | 58 | 1020.8 |
| 20260508152324 | 58 | 45 | 1.0 | 2.0 | 0.00 | 0.00 | 0.00 | 59 | 1020.8 |
| 20260508152147 | 58 | 45 | 2.0 | 2.0 | 0.00 | 0.00 | 0.00 | 59 | 1020.8 |
| 20260508151950 | 58 | 45 | 3.0 | 2.0 | 0.00 | 0.00 | 0.00 | 59 | 1020.8 |
| 20260508151802 | 58 | 45 | 3.0 | 6.0 | 0.00 | 0.00 | 0.00 | 58 | 1020.9 |
| 20260508151620 | 58 | 45 | 3.0 | 7.0 | 0.00 | 0.00 | 0.00 | 60 | 1020.8 |
| 20260508151435 | 58 | 68 | 3.0 | 7.0 | 0.00 | 0.00 | 0.00 | 59 | 1020.8 |
| 20260508151300 | 58 | 68 | 3.0 | 7.0 | 0.00 | 0.00 | 0.00 | 58 | 1020.8 |
| 20260508151107 | 58 | 68 | 2.0 | 6.0 | 0.00 | 0.00 | 0.00 | 58 | 1020.8 |
| 20260508150914 | 59 | 90 | 2.0 | 6.0 | 0.00 | 0.00 | 0.00 | 58 | 1020.9 |
| 20260508150730 | 59 | 22 | 2.0 | 4.0 | 0.00 | 0.00 | 0.00 | 58 | 1020.9 |
| 20260508150355 | 59 | 270 | 1.0 | 5.0 | 0.00 | 0.00 | 0.00 | 57 | 1020.9 |
| 20260508150201 | 59 | 68 | 1.0 | 5.0 | 0.00 | 0.00 | 0.00 | 58 | 1020.9 |
| 20260508150016 | 59 | 22 | 1.0 | 5.0 | 0.00 | 0.00 | 0.00 | 58 | 1020.8 |
| 20260508145835 | 59 | 22 | 1.0 | 5.0 | 0.00 | 0.00 | 0.00 | 57 | 1020.9 |
| 20260508145650 | 59 | 68 | 1.0 | 3.0 | 0.00 | 0.00 | 0.00 | 58 | 1020.9 |
| 20260508145505 | 59 | 22 | 1.0 | 2.0 | 0.00 | 0.00 | 0.00 | 57 | 1020.8 |
| 20260508145326 | 59 | 22 | 2.0 | 3.0 | 0.00 | 0.00 | 0.00 | 57 | 1020.9 |
| 20260508145319 | 59 | 22 | 2.0 | 3.0 | 0.00 | 0.00 | 0.00 | 57 | 1020.8 |
| 20260508145140 | 59 | 22 | 1.0 | 3.0 | 0.00 | 0.00 | 0.00 | 58 | 1020.9 |
| 20260508144950 | 59 | 22 | 1.0 | 5.0 | 0.00 | 0.00 | 0.00 | 57 | 1020.9 |
| 20260508144751 | 59 | 45 | 1.0 | 4.0 | 0.00 | 0.00 | 0.00 | 58 | 1020.9 |
| 20260508144555 | 59 | 45 | 2.0 | 4.0 | 0.00 | 0.00 | 0.00 | 57 | 1020.9 |
| 20260508144400 | 59 | 45 | 2.0 | 4.0 | 0.00 | 0.00 | 0.00 | 58 | 1021.0 |
| 20260508144210 | 59 | 68 | 2.0 | 5.0 | 0.00 | 0.00 | 0.00 | 58 | 1020.9 |
| 20260508144010 | 60 | 45 | 2.0 | 5.0 | 0.00 | 0.00 | 0.00 | 57 | 1020.9 |
| 20260508143810 | 60 | 22 | 2.0 | 5.0 | 0.00 | 0.00 | 0.00 | 57 | 1020.9 |
| 20260508143626 | 60 | 68 | 2.0 | 5.0 | 0.00 | 0.00 | 0.00 | 57 | 1020.9 |
| 20260508143524 | 60 | 338 | 2.0 | 5.0 | 0.00 | 0.00 | 0.00 | 57 | 1021.0 |
| 20260508143435 | 60 | 338 | 2.0 | 5.0 | 0.00 | 0.00 | 0.00 | 57 | 1020.9 |
| 20260508143255 | 60 | 45 | 2.0 | 3.0 | 0.00 | 0.00 | 0.00 | 54 | 1020.9 |
| 20260508143110 | 61 | 22 | 2.0 | 5.0 | 0.00 | 0.00 | 0.00 | 55 | 1020.9 |
| 20260508142920 | 61 | 22 | 2.0 | 5.0 | 0.00 | 0.00 | 0.00 | 55 | 1020.9 |
| 20260508142734 | 61 | 22 | 2.0 | 5.0 | 0.00 | 0.00 | 0.00 | 54 | 1020.9 |
| 20260508142545 | 61 | 22 | 1.0 | 5.0 | 0.00 | 0.00 | 0.00 | 54 | 1020.9 |
| 20260508142400 | 61 | 68 | 1.0 | 5.0 | 0.00 | 0.00 | 0.00 | 55 | 1021.0 |
| 20260508142205 | 61 | 68 | 1.0 | 5.0 | 0.00 | 0.00 | 0.00 | 53 | 1020.9 |
| 20260508142015 | 62 | 45 | 1.0 | 2.0 | 0.00 | 0.00 | 0.00 | 52 | 1020.9 |
| 20260508141830 | 62 | 45 | 1.0 | 3.0 | 0.00 | 0.00 | 0.00 | 52 | 1020.9 |
| 20260508141652 | 62 | 45 | 1.0 | 4.0 | 0.00 | 0.00 | 0.00 | 51 | 1020.9 |
| 20260508141515 | 62 | 292 | 1.0 | 5.0 | 0.00 | 0.00 | 0.00 | 51 | 1020.9 |
| 20260508141325 | 61 | 292 | 1.0 | 5.0 | 0.00 | 0.00 | 0.00 | 51 | 1020.9 |
| 20260508141135 | 61 | 292 | 1.0 | 5.0 | 0.00 | 0.00 | 0.00 | 49 | 1020.9 |
| 20260508140953 | 61 | 22 | 1.0 | 2.0 | 0.00 | 0.00 | 0.00 | 49 | 1020.9 |
| 20260508140800 | 61 | 22 | 2.0 | 3.0 | 0.00 | 0.00 | 0.00 | 50 | 1020.9 |
| 20260508140600 | 60 | 248 | 2.0 | 3.0 | 0.00 | 0.00 | 0.00 | 51 | 1020.9 |
| 20260508140410 | 60 | 68 | 2.0 | 5.0 | 0.00 | 0.00 | 0.00 | 53 | 1020.9 |
| 20260508140225 | 61 | 68 | 2.0 | 5.0 | 0.00 | 0.00 | 0.00 | 51 | 1020.9 |
| 20260508140132 | 61 | 68 | 2.0 | 5.0 | 0.00 | 0.00 | 0.00 | 52 | 1020.9 |
| 20260508140025 | 61 | 68 | 2.0 | 5.0 | 0.00 | 0.00 | 0.00 | 52 | 1020.9 |
| 20260508135840 | 61 | 90 | 2.0 | 4.0 | 0.00 | 0.00 | 0.00 | 51 | 1020.9 |
| 20260508135640 | 61 | 68 | 2.0 | 6.0 | 0.00 | 0.00 | 0.00 | 51 | 1021.0 |
| 20260508135500 | 61 | 45 | 2.0 | 6.0 | 0.00 | 0.00 | 0.00 | 51 | 1021.0 |
| 20260508135315 | 61 | 45 | 2.0 | 6.0 | 0.00 | 0.00 | 0.00 | 53 | 1021.0 |
| 20260508135140 | 61 | 90 | 2.0 | 5.0 | 0.00 | 0.00 | 0.00 | 52 | 1021.0 |
| 20260508135000 | 61 | 45 | 2.0 | 5.0 | 0.00 | 0.00 | 0.00 | 53 | 1021.0 |
| 20260508134820 | 61 | 90 | 2.0 | 5.0 | 0.00 | 0.00 | 0.00 | 51 | 1021.0 |
| 20260508134622 | 61 | 68 | 2.0 | 5.0 | 0.00 | 0.00 | 0.00 | 53 | 1021.0 |
| 20260508134447 | 62 | 45 | 1.0 | 5.0 | 0.00 | 0.00 | 0.00 | 52 | 1021.0 |
| 20260508134249 | 62 | 45 | 2.0 | 5.0 | 0.00 | 0.00 | 0.00 | 50 | 1021.1 |
| 20260508134053 | 61 | 68 | 1.0 | 2.0 | 0.00 | 0.00 | 0.00 | 51 | 1021.1 |
| 20260508133900 | 61 | 68 | 1.0 | 2.0 | 0.00 | 0.00 | 0.00 | 52 | 1021.0 |
| 20260508133713 | 60 | 68 | 2.0 | 3.0 | 0.00 | 0.00 | 0.00 | 52 | 1021.0 |
| 20260508133525 | 60 | 68 | 2.0 | 3.0 | 0.00 | 0.00 | 0.00 | 52 | 1021.0 |
| 20260508133340 | 60 | 68 | 3.0 | 5.0 | 0.00 | 0.00 | 0.00 | 51 | 1021.1 |
| 20260508133145 | 60 | 68 | 4.0 | 5.0 | 0.00 | 0.00 | 0.00 | 53 | 1021.1 |
| 20260508133044 | 60 | 68 | 4.0 | 5.0 | 0.00 | 0.00 | 0.00 | 53 | 1021.0 |
| 20260508132955 | 60 | 45 | 4.0 | 6.0 | 0.00 | 0.00 | 0.00 | 53 | 1021.0 |
| 20260508132800 | 61 | 68 | 4.0 | 8.0 | 0.00 | 0.00 | 0.00 | 55 | 1021.1 |
| 20260508132610 | 61 | 90 | 3.0 | 8.0 | 0.00 | 0.00 | 0.00 | 55 | 1021.1 |
| 20260508132427 | 62 | 90 | 2.0 | 8.0 | 0.00 | 0.00 | 0.00 | 52 | 1021.1 |
| 20260508132250 | 62 | 68 | 2.0 | 6.0 | 0.00 | 0.00 | 0.00 | 51 | 1021.2 |
| 20260508132110 | 63 | 68 | 2.0 | 6.0 | 0.00 | 0.00 | 0.00 | 52 | 1021.2 |
| 20260508131909 | 63 | 68 | 2.0 | 4.0 | 0.00 | 0.00 | 0.00 | 51 | 1021.2 |
| 20260508131720 | 63 | 68 | 2.0 | 4.0 | 0.00 | 0.00 | 0.00 | 51 | 1021.2 |
| 20260508131520 | 64 | 68 | 2.0 | 6.0 | 0.00 | 0.00 | 0.00 | 48 | 1021.2 |
| 20260508131344 | 64 | 45 | 1.0 | 3.0 | 0.00 | 0.00 | 0.00 | 49 | 1021.3 |
| 20260508131237 | 64 | 90 | 1.0 | 3.0 | 0.00 | 0.00 | 0.00 | 49 | 1021.2 |
| 20260508131207 | 64 | 90 | 1.0 | 3.0 | 0.00 | 0.00 | 0.00 | 49 | 1021.2 |
| 20260508131010 | 64 | 45 | 1.0 | 3.0 | 0.00 | 0.00 | 0.00 | 47 | 1021.3 |
| 20260508130825 | 64 | 45 | 1.0 | 3.0 | 0.00 | 0.00 | 0.00 | 48 | 1021.3 |
| 20260508130645 | 64 | 45 | 1.0 | 3.0 | 0.00 | 0.00 | 0.00 | 48 | 1021.3 |
| 20260508130505 | 63 | 45 | 1.0 | 2.0 | 0.00 | 0.00 | 0.00 | 50 | 1021.3 |
| 20260508130307 | 63 | 45 | 2.0 | 2.0 | 0.00 | 0.00 | 0.00 | 47 | 1021.3 |
| 20260508130110 | 63 | 45 | 2.0 | 4.0 | 0.00 | 0.00 | 0.00 | 47 | 1021.3 |
| 20260508125925 | 63 | 45 | 3.0 | 4.0 | 0.00 | 0.00 | 0.00 | 48 | 1021.3 |
| 20260508125745 | 63 | 45 | 3.0 | 10.0 | 0.00 | 0.00 | 0.00 | 48 | 1021.3 |
| 20260508125602 | 63 | 45 | 4.0 | 10.0 | 0.00 | 0.00 | 0.00 | 50 | 1021.3 |
| 20260508125415 | 62 | 45 | 3.0 | 10.0 | 0.00 | 0.00 | 0.00 | 52 | 1021.4 |
| 20260508125235 | 62 | 22 | 2.0 | 7.0 | 0.00 | 0.00 | 0.00 | 48 | 1021.4 |
| 20260508125045 | 62 | 68 | 2.0 | 5.0 | 0.00 | 0.00 | 0.00 | 50 | 1021.4 |
| 20260508124855 | 61 | 292 | 3.0 | 5.0 | 0.00 | 0.00 | 0.00 | 52 | 1021.4 |
| 20260508124715 | 61 | 22 | 3.0 | 5.0 | 0.00 | 0.00 | 0.00 | 51 | 1021.4 |
| 20260508124517 | 60 | 202 | 4.0 | 8.0 | 0.00 | 0.00 | 0.00 | 50 | 1021.4 |
| 20260508124327 | 60 | 202 | 4.0 | 10.0 | 0.00 | 0.00 | 0.00 | 52 | 1021.4 |
| 20260508124135 | 59 | 180 | 4.0 | 10.0 | 0.00 | 0.00 | 0.00 | 54 | 1021.4 |
| 20260508123944 | 59 | 202 | 4.0 | 10.0 | 0.00 | 0.00 | 0.00 | 54 | 1021.4 |
| 20260508123906 | 59 | 270 | 4.0 | 10.0 | 0.00 | 0.00 | 0.00 | 54 | 1021.4 |
| 20260508123807 | 59 | 225 | 4.0 | 9.0 | 0.00 | 0.00 | 0.00 | 53 | 1021.4 |
| 20260508123627 | 59 | 248 | 4.0 | 10.0 | 0.00 | 0.00 | 0.00 | 55 | 1021.5 |
| 20260508123445 | 59 | 225 | 4.0 | 10.0 | 0.00 | 0.00 | 0.00 | 54 | 1021.5 |
| 20260508123305 | 59 | 248 | 4.0 | 10.0 | 0.00 | 0.00 | 0.00 | 57 | 1021.6 |
| 20260508123127 | 59 | 225 | 3.0 | 10.0 | 0.00 | 0.00 | 0.00 | 55 | 1021.5 |
| 20260508122950 | 59 | 180 | 3.0 | 10.0 | 0.00 | 0.00 | 0.00 | 55 | 1021.4 |
| 20260508122755 | 58 | 180 | 3.0 | 5.0 | 0.00 | 0.00 | 0.00 | 55 | 1021.4 |
| 20260508122610 | 58 | 225 | 3.0 | 5.0 | 0.00 | 0.00 | 0.00 | 56 | 1021.5 |
| 20260508122420 | 58 | 225 | 3.0 | 6.0 | 0.00 | 0.00 | 0.00 | 53 | 1021.5 |
| 20260508122225 | 57 | 202 | 3.0 | 6.0 | 0.00 | 0.00 | 0.00 | 56 | 1021.6 |
| 20260508122153 | 57 | 202 | 3.0 | 6.0 | 0.00 | 0.00 | 0.00 | 56 | 1021.5 |
| 20260508122025 | 57 | 180 | 4.0 | 6.0 | 0.00 | 0.00 | 0.00 | 56 | 1021.6 |
| 20260508121827 | 57 | 180 | 4.0 | 7.0 | 0.00 | 0.00 | 0.00 | 58 | 1021.6 |
| 20260508121645 | 57 | 202 | 3.0 | 6.0 | 0.00 | 0.00 | 0.00 | 58 | 1021.6 |
| 20260508121455 | 57 | 158 | 4.0 | 6.0 | 0.00 | 0.00 | 0.00 | 57 | 1021.5 |
| 20260508121307 | 57 | 202 | 3.0 | 6.0 | 0.00 | 0.00 | 0.00 | 58 | 1021.6 |
| 20260508121120 | 57 | 180 | 3.0 | 6.0 | 0.00 | 0.00 | 0.00 | 58 | 1021.6 |
| 20260508120930 | 57 | 180 | 2.0 | 7.0 | 0.00 | 0.00 | 0.00 | 58 | 1021.6 |
| 20260508120735 | 57 | 180 | 2.0 | 7.0 | 0.00 | 0.00 | 0.00 | 59 | 1021.6 |
| 20260508120540 | 57 | 180 | 2.0 | 6.0 | 0.00 | 0.00 | 0.00 | 58 | 1021.5 |
| 20260508120417 | 57 | 135 | 1.0 | 6.0 | 0.00 | 0.00 | 0.00 | 59 | 1021.6 |
| 20260508120355 | 56 | 135 | 2.0 | 6.0 | 0.00 | 0.00 | 0.00 | 59 | 1021.6 |
| 20260508120200 | 56 | 180 | 1.0 | 6.0 | 0.00 | 0.00 | 0.00 | 60 | 1021.6 |
| 20260508120003 | 56 | 135 | 2.0 | 6.0 | 0.00 | 0.00 | 0.00 | 60 | 1021.6 |
| 20260508115825 | 56 | 112 | 2.0 | 4.0 | 0.00 | 0.00 | 0.00 | 60 | 1021.6 |
| 20260508115630 | 56 | 180 | 2.0 | 4.0 | 0.00 | 0.00 | 0.00 | 61 | 1021.5 |
| 20260508115435 | 57 | 90 | 2.0 | 6.0 | 0.00 | 0.00 | 0.00 | 60 | 1021.5 |
| 20260508115255 | 57 | 68 | 3.0 | 6.0 | 0.00 | 0.00 | 0.00 | 61 | 1021.5 |
| 20260508115111 | 57 | 68 | 2.0 | 6.0 | 0.00 | 0.00 | 0.00 | 61 | 1021.6 |
| 20260508114915 | 57 | 202 | 2.0 | 3.0 | 0.00 | 0.00 | 0.00 | 59 | 1021.5 |
| 20260508114806 | 56 | 112 | 2.0 | 5.0 | 0.00 | 0.00 | 0.00 | 60 | 1021.6 |
| 20260508114720 | 56 | 180 | 2.0 | 6.0 | 0.00 | 0.00 | 0.00 | 60 | 1021.5 |
| 20260508114535 | 56 | 45 | 2.0 | 6.0 | 0.00 | 0.00 | 0.00 | 60 | 1021.6 |
| 20260508114355 | 56 | 45 | 2.0 | 6.0 | 0.00 | 0.00 | 0.00 | 60 | 1021.6 |
| 20260508114207 | 56 | 180 | 2.0 | 5.0 | 0.00 | 0.00 | 0.00 | 62 | 1021.6 |
| 20260508114025 | 56 | 180 | 2.0 | 5.0 | 0.00 | 0.00 | 0.00 | 61 | 1021.7 |
| 20260508113835 | 56 | 112 | 2.0 | 3.0 | 0.00 | 0.00 | 0.00 | 63 | 1021.7 |
| 20260508113640 | 56 | 90 | 3.0 | 6.0 | 0.00 | 0.00 | 0.00 | 64 | 1021.7 |
| 20260508113500 | 56 | 90 | 4.0 | 6.0 | 0.00 | 0.00 | 0.00 | 63 | 1021.6 |
| 20260508113320 | 56 | 68 | 4.0 | 6.0 | 0.00 | 0.00 | 0.00 | 63 | 1021.6 |
| 20260508113251 | 56 | 68 | 4.0 | 7.0 | 0.00 | 0.00 | 0.00 | 62 | 1021.7 |
| 20260508113130 | 57 | 68 | 4.0 | 7.0 | 0.00 | 0.00 | 0.00 | 62 | 1021.7 |
| 20260508112940 | 57 | 68 | 4.0 | 9.0 | 0.00 | 0.00 | 0.00 | 63 | 1021.7 |
| 20260508112804 | 57 | 68 | 4.0 | 9.0 | 0.00 | 0.00 | 0.00 | 63 | 1021.6 |
| 20260508112620 | 57 | 45 | 2.0 | 6.0 | 0.00 | 0.00 | 0.00 | 60 | 1021.7 |
| 20260508112419 | 57 | 68 | 2.0 | 5.0 | 0.00 | 0.00 | 0.00 | 59 | 1021.7 |
| 20260508112220 | 58 | 45 | 2.0 | 5.0 | 0.00 | 0.00 | 0.00 | 61 | 1021.7 |
| 20260508112030 | 58 | 68 | 2.0 | 6.0 | 0.00 | 0.00 | 0.00 | 60 | 1021.7 |
| 20260508111831 | 58 | 45 | 1.0 | 6.0 | 0.00 | 0.00 | 0.00 | 59 | 1021.7 |
| 20260508111654 | 58 | 338 | 1.0 | 6.0 | 0.00 | 0.00 | 0.00 | 61 | 1021.8 |
| 20260508111510 | 58 | 292 | 1.0 | 6.0 | 0.00 | 0.00 | 0.00 | 61 | 1021.7 |
| 20260508111410 | 57 | 90 | 1.0 | 4.0 | 0.00 | 0.00 | 0.00 | 60 | 1021.7 |
| 20260508111315 | 57 | 90 | 1.0 | 4.0 | 0.00 | 0.00 | 0.00 | 59 | 1021.7 |
| 20260508111115 | 57 | 68 | 1.0 | 4.0 | 0.00 | 0.00 | 0.00 | 59 | 1021.7 |
| 20260508110938 | 57 | 68 | 1.0 | 4.0 | 0.00 | 0.00 | 0.00 | 59 | 1021.6 |
| 20260508110740 | 57 | 22 | 1.0 | 4.0 | 0.00 | 0.00 | 0.00 | 59 | 1021.7 |
| 20260508110545 | 56 | 90 | 2.0 | 5.0 | 0.00 | 0.00 | 0.00 | 59 | 1021.7 |
| 20260508110345 | 57 | 90 | 2.0 | 5.0 | 0.00 | 0.00 | 0.00 | 60 | 1021.6 |
| 20260508110150 | 57 | 90 | 3.0 | 6.0 | 0.00 | 0.00 | 0.00 | 61 | 1021.7 |
| 20260508110010 | 57 | 68 | 2.0 | 6.0 | 0.00 | 0.00 | 0.00 | 62 | 1021.6 |
| 20260508105815 | 57 | 45 | 2.0 | 6.0 | 0.00 | 0.00 | 0.00 | 60 | 1021.7 |
| 20260508105811 | 57 | 45 | 2.0 | 6.0 | 0.00 | 0.00 | 0.00 | 60 | 1021.7 |
| 20260508105615 | 57 | 68 | 2.0 | 5.0 | 0.00 | 0.00 | 0.00 | 60 | 1021.6 |
| 20260508105413 | 57 | 90 | 1.0 | 4.0 | 0.00 | 0.00 | 0.00 | 58 | 1021.7 |
| 20260508105215 | 57 | 0 | 2.0 | 2.0 | 0.00 | 0.00 | 0.00 | 57 | 1021.7 |
| 20260508105018 | 57 | 0 | 2.0 | 6.0 | 0.00 | 0.00 | 0.00 | 59 | 1021.6 |
| 20260508104817 | 56 | 0 | 2.0 | 6.0 | 0.00 | 0.00 | 0.00 | 58 | 1021.7 |
| 20260508104625 | 56 | 22 | 2.0 | 6.0 | 0.00 | 0.00 | 0.00 | 60 | 1021.6 |
| 20260508104445 | 56 | 45 | 2.0 | 5.0 | 0.00 | 0.00 | 0.00 | 58 | 1021.7 |
| 20260508104254 | 56 | 68 | 3.0 | 6.0 | 0.00 | 0.00 | 0.00 | 59 | 1021.6 |
| 20260508104142 | 56 | 22 | 4.0 | 6.0 | 0.00 | 0.00 | 0.00 | 60 | 1021.6 |
| 20260508104105 | 57 | 22 | 4.0 | 6.0 | 0.00 | 0.00 | 0.00 | 60 | 1021.7 |
| 20260508103921 | 57 | 22 | 4.0 | 6.0 | 0.00 | 0.00 | 0.00 | 60 | 1021.7 |
| 20260508103734 | 57 | 22 | 4.0 | 9.0 | 0.00 | 0.00 | 0.00 | 61 | 1021.7 |
| 20260508103547 | 57 | 68 | 4.0 | 9.0 | 0.00 | 0.00 | 0.00 | 60 | 1021.6 |
| 20260508103355 | 57 | 68 | 3.0 | 9.0 | 0.00 | 0.00 | 0.00 | 61 | 1021.6 |
| 20260508103155 | 57 | 68 | 2.0 | 6.0 | 0.00 | 0.00 | 0.00 | 58 | 1021.6 |
| 20260508103005 | 57 | 22 | 2.0 | 2.0 | 0.00 | 0.00 | 0.00 | 58 | 1021.5 |
| 20260508102819 | 57 | 22 | 2.0 | 3.0 | 0.00 | 0.00 | 0.00 | 58 | 1021.6 |
| 20260508102635 | 57 | 22 | 2.0 | 6.0 | 0.00 | 0.00 | 0.00 | 59 | 1021.5 |
| 20260508102453 | 57 | 68 | 3.0 | 9.0 | 0.00 | 0.00 | 0.00 | 58 | 1021.6 |
| 20260508102348 | 57 | 45 | 3.0 | 9.0 | 0.00 | 0.00 | 0.00 | 59 | 1021.6 |
| 20260508102317 | 57 | 45 | 3.0 | 9.0 | 0.00 | 0.00 | 0.00 | 59 | 1021.6 |
| 20260508102130 | 57 | 68 | 3.0 | 9.0 | 0.00 | 0.00 | 0.00 | 60 | 1021.6 |
| 20260508101949 | 57 | 90 | 2.0 | 6.0 | 0.00 | 0.00 | 0.00 | 59 | 1021.6 |
| 20260508101815 | 57 | 90 | 2.0 | 6.0 | 0.00 | 0.00 | 0.00 | 59 | 1021.6 |
| 20260508101630 | 57 | 90 | 2.0 | 7.0 | 0.00 | 0.00 | 0.00 | 60 | 1021.6 |
| 20260508101438 | 57 | 90 | 3.0 | 7.0 | 0.00 | 0.00 | 0.00 | 60 | 1021.6 |
| 20260508101255 | 57 | 90 | 3.0 | 7.0 | 0.00 | 0.00 | 0.00 | 59 | 1021.6 |
| 20260508101115 | 57 | 68 | 2.0 | 4.0 | 0.00 | 0.00 | 0.00 | 58 | 1021.6 |
| 20260508100931 | 57 | 68 | 3.0 | 8.0 | 0.00 | 0.00 | 0.00 | 60 | 1021.6 |
| 20260508100751 | 57 | 45 | 3.0 | 8.0 | 0.00 | 0.00 | 0.00 | 61 | 1021.5 |
| 20260508100710 | 57 | 45 | 4.0 | 8.0 | 0.00 | 0.00 | 0.00 | 60 | 1021.5 |
| 20260508100605 | 57 | 45 | 3.0 | 7.0 | 0.00 | 0.00 | 0.00 | 58 | 1021.5 |
| 20260508100411 | 57 | 68 | 3.0 | 7.0 | 0.00 | 0.00 | 0.00 | 59 | 1021.6 |
| 20260508100220 | 57 | 68 | 2.0 | 7.0 | 0.00 | 0.00 | 0.00 | 61 | 1021.6 |
| 20260508100040 | 57 | 68 | 2.0 | 7.0 | 0.00 | 0.00 | 0.00 | 60 | 1021.7 |
| 20260508095845 | 57 | 22 | 2.0 | 5.0 | 0.00 | 0.00 | 0.00 | 58 | 1021.7 |
| 20260508095650 | 56 | 22 | 2.0 | 5.0 | 0.00 | 0.00 | 0.00 | 59 | 1021.7 |
| 20260508095505 | 56 | 22 | 2.0 | 5.0 | 0.00 | 0.00 | 0.00 | 59 | 1021.7 |
| 20260508095307 | 56 | 45 | 3.0 | 5.0 | 0.00 | 0.00 | 0.00 | 61 | 1021.7 |
| 20260508095110 | 56 | 68 | 3.0 | 5.0 | 0.00 | 0.00 | 0.00 | 61 | 1021.6 |
| 20260508094911 | 56 | 90 | 3.0 | 6.0 | 0.00 | 0.00 | 0.00 | 62 | 1021.7 |
| 20260508094725 | 57 | 68 | 3.0 | 7.0 | 0.00 | 0.00 | 0.00 | 62 | 1021.7 |
| 20260508094533 | 57 | 90 | 3.0 | 7.0 | 0.00 | 0.00 | 0.00 | 62 | 1021.7 |
| 20260508094355 | 57 | 90 | 3.0 | 10.0 | 0.00 | 0.00 | 0.00 | 61 | 1021.6 |
| 20260508094200 | 57 | 68 | 3.0 | 10.0 | 0.00 | 0.00 | 0.00 | 62 | 1021.6 |
| 20260508094020 | 58 | 22 | 3.0 | 10.0 | 0.00 | 0.00 | 0.00 | 60 | 1021.7 |
| 20260508093822 | 58 | 45 | 2.0 | 10.0 | 0.00 | 0.00 | 0.00 | 59 | 1021.6 |
| 20260508093647 | 58 | 90 | 2.0 | 6.0 | 0.00 | 0.00 | 0.00 | 58 | 1021.6 |
| 20260508093510 | 58 | 90 | 2.0 | 6.0 | 0.00 | 0.00 | 0.00 | 57 | 1021.7 |
| 20260508093311 | 58 | 90 | 2.0 | 6.0 | 0.00 | 0.00 | 0.00 | 58 | 1021.6 |
| 20260508093142 | 58 | 45 | 2.0 | 6.0 | 0.00 | 0.00 | 0.00 | 56 | 1021.6 |
| 20260508093003 | 58 | 22 | 2.0 | 6.0 | 0.00 | 0.00 | 0.00 | 59 | 1021.7 |
| 20260508092815 | 58 | 22 | 1.0 | 6.0 | 0.00 | 0.00 | 0.00 | 58 | 1021.6 |
| 20260508092615 | 59 | 22 | 1.0 | 5.0 | 0.00 | 0.00 | 0.00 | 57 | 1021.7 |
| 20260508092415 | 59 | 292 | 1.0 | 2.0 | 0.00 | 0.00 | 0.00 | 57 | 1021.6 |
| 20260508092237 | 59 | 270 | 2.0 | 4.0 | 0.00 | 0.00 | 0.00 | 56 | 1021.6 |
| 20260508092045 | 59 | 270 | 2.0 | 6.0 | 0.00 | 0.00 | 0.00 | 54 | 1021.6 |
| 20260508091845 | 59 | 338 | 2.0 | 6.0 | 0.00 | 0.00 | 0.00 | 55 | 1021.6 |
| 20260508091645 | 59 | 22 | 2.0 | 6.0 | 0.00 | 0.00 | 0.00 | 52 | 1021.6 |
| 20260508091521 | 59 | 68 | 2.0 | 3.0 | 0.00 | 0.00 | 0.00 | 53 | 1021.6 |
| 20260508091500 | 59 | 68 | 2.0 | 3.0 | 0.00 | 0.00 | 0.00 | 53 | 1021.6 |
| 20260508091320 | 58 | 90 | 1.0 | 3.0 | 0.00 | 0.00 | 0.00 | 56 | 1021.6 |
| 20260508091125 | 58 | 90 | 1.0 | 3.0 | 0.00 | 0.00 | 0.00 | 56 | 1021.6 |
| 20260508090925 | 58 | 68 | 1.0 | 4.0 | 0.00 | 0.00 | 0.00 | 53 | 1021.7 |
| 20260508090740 | 58 | 22 | 1.0 | 6.0 | 0.00 | 0.00 | 0.00 | 55 | 1021.6 |
| 20260508090555 | 58 | 22 | 2.0 | 6.0 | 0.00 | 0.00 | 0.00 | 55 | 1021.6 |
| 20260508090355 | 58 | 22 | 2.0 | 5.0 | 0.00 | 0.00 | 0.00 | 55 | 1021.6 |
| 20260508090200 | 58 | 68 | 2.0 | 4.0 | 0.00 | 0.00 | 0.00 | 56 | 1021.6 |
| 20260508085952 | 58 | 68 | 2.0 | 6.0 | 0.00 | 0.00 | 0.00 | 56 | 1021.6 |
| 20260508085810 | 58 | 68 | 2.0 | 6.0 | 0.00 | 0.00 | 0.00 | 57 | 1021.6 |
| 20260508085612 | 58 | 68 | 2.0 | 4.0 | 0.00 | 0.00 | 0.00 | 55 | 1021.6 |
| 20260508085425 | 58 | 45 | 2.0 | 6.0 | 0.00 | 0.00 | 0.00 | 54 | 1021.5 |
| 20260508085230 | 57 | 22 | 3.0 | 6.0 | 0.00 | 0.00 | 0.00 | 56 | 1021.5 |
| 20260508085055 | 57 | 22 | 2.0 | 6.0 | 0.00 | 0.00 | 0.00 | 58 | 1021.5 |
| 20260508084900 | 57 | 68 | 2.0 | 5.0 | 0.00 | 0.00 | 0.00 | 58 | 1021.4 |
| 20260508084707 | 57 | 45 | 2.0 | 5.0 | 0.00 | 0.00 | 0.00 | 56 | 1021.5 |
| 20260508084510 | 56 | 22 | 2.0 | 4.0 | 0.00 | 0.00 | 0.00 | 57 | 1021.5 |
| 20260508084325 | 56 | 22 | 2.0 | 7.0 | 0.00 | 0.00 | 0.00 | 57 | 1021.5 |
| 20260508084153 | 56 | 22 | 3.0 | 7.0 | 0.00 | 0.00 | 0.00 | 59 | 1021.5 |
| 20260508084138 | 56 | 22 | 3.0 | 7.0 | 0.00 | 0.00 | 0.00 | 58 | 1021.5 |
| 20260508083943 | 56 | 22 | 3.0 | 6.0 | 0.00 | 0.00 | 0.00 | 59 | 1021.5 |
| 20260508083745 | 56 | 68 | 3.0 | 5.0 | 0.00 | 0.00 | 0.00 | 61 | 1021.5 |
| 20260508083558 | 56 | 68 | 4.0 | 7.0 | 0.00 | 0.00 | 0.00 | 60 | 1021.5 |
| 20260508083408 | 56 | 22 | 4.0 | 8.0 | 0.00 | 0.00 | 0.00 | 62 | 1021.6 |
| 20260508083230 | 56 | 68 | 3.0 | 8.0 | 0.00 | 0.00 | 0.00 | 63 | 1021.5 |
| 20260508083040 | 56 | 90 | 3.0 | 6.0 | 0.00 | 0.00 | 0.00 | 61 | 1021.6 |
| 20260508082900 | 56 | 112 | 3.0 | 6.0 | 0.00 | 0.00 | 0.00 | 61 | 1021.4 |
| 20260508082710 | 56 | 68 | 3.0 | 5.0 | 0.00 | 0.00 | 0.00 | 60 | 1021.5 |
| 20260508082530 | 57 | 68 | 2.0 | 5.0 | 0.00 | 0.00 | 0.00 | 59 | 1021.5 |
| 20260508082350 | 57 | 90 | 2.0 | 9.0 | 0.00 | 0.00 | 0.00 | 58 | 1021.5 |
| 20260508082311 | 57 | 90 | 2.0 | 9.0 | 0.00 | 0.00 | 0.00 | 60 | 1021.5 |
| 20260508082154 | 57 | 90 | 2.0 | 9.0 | 0.00 | 0.00 | 0.00 | 62 | 1021.4 |
| 20260508082017 | 57 | 45 | 3.0 | 8.0 | 0.00 | 0.00 | 0.00 | 61 | 1021.5 |
| 20260508081820 | 57 | 68 | 2.0 | 5.0 | 0.00 | 0.00 | 0.00 | 61 | 1021.4 |
| 20260508081620 | 57 | 45 | 2.0 | 3.0 | 0.00 | 0.00 | 0.00 | 61 | 1021.5 |
| 20260508081433 | 56 | 45 | 3.0 | 6.0 | 0.00 | 0.00 | 0.00 | 61 | 1021.4 |
| 20260508081250 | 56 | 22 | 3.0 | 6.0 | 0.00 | 0.00 | 0.00 | 61 | 1021.4 |
| 20260508081107 | 56 | 45 | 4.0 | 6.0 | 0.00 | 0.00 | 0.00 | 63 | 1021.4 |
| 20260508080915 | 56 | 90 | 4.0 | 8.0 | 0.00 | 0.00 | 0.00 | 63 | 1021.3 |
| 20260508080730 | 56 | 68 | 4.0 | 8.0 | 0.00 | 0.00 | 0.00 | 63 | 1021.4 |
| 20260508080545 | 56 | 68 | 4.0 | 8.0 | 0.00 | 0.00 | 0.00 | 61 | 1021.4 |
| 20260508080425 | 56 | 45 | 3.0 | 7.0 | 0.00 | 0.00 | 0.00 | 63 | 1021.4 |
| 20260508080354 | 56 | 68 | 3.0 | 7.0 | 0.00 | 0.00 | 0.00 | 64 | 1021.3 |
| 20260508080155 | 56 | 45 | 3.0 | 7.0 | 0.00 | 0.00 | 0.00 | 62 | 1021.3 |
| 20260508080003 | 56 | 45 | 3.0 | 7.0 | 0.00 | 0.00 | 0.00 | 64 | 1021.3 |
| 20260508075825 | 56 | 90 | 3.0 | 7.0 | 0.00 | 0.00 | 0.00 | 63 | 1021.3 |
| 20260508075645 | 55 | 68 | 4.0 | 7.0 | 0.00 | 0.00 | 0.00 | 65 | 1021.4 |
| 20260508075447 | 55 | 338 | 4.0 | 7.0 | 0.00 | 0.00 | 0.00 | 64 | 1021.3 |
| 20260508075307 | 55 | 68 | 4.0 | 8.0 | 0.00 | 0.00 | 0.00 | 64 | 1021.3 |
| 20260508075120 | 55 | 45 | 4.0 | 8.0 | 0.00 | 0.00 | 0.00 | 65 | 1021.4 |
| 20260508074930 | 56 | 22 | 3.0 | 8.0 | 0.00 | 0.00 | 0.00 | 65 | 1021.3 |
| 20260508074738 | 56 | 68 | 3.0 | 6.0 | 0.00 | 0.00 | 0.00 | 65 | 1021.4 |
| 20260508074613 | 56 | 45 | 3.0 | 6.0 | 0.00 | 0.00 | 0.00 | 67 | 1021.3 |
| 20260508074545 | 56 | 45 | 3.0 | 6.0 | 0.00 | 0.00 | 0.00 | 67 | 1021.4 |
| 20260508074347 | 56 | 90 | 3.0 | 9.0 | 0.00 | 0.00 | 0.00 | 66 | 1021.4 |
| 20260508074209 | 56 | 68 | 3.0 | 9.0 | 0.00 | 0.00 | 0.00 | 68 | 1021.2 |
| 20260508074027 | 56 | 68 | 3.0 | 9.0 | 0.00 | 0.00 | 0.00 | 68 | 1021.3 |
| 20260508073845 | 56 | 90 | 3.0 | 8.0 | 0.00 | 0.00 | 0.00 | 67 | 1021.3 |
| 20260508073705 | 56 | 68 | 3.0 | 8.0 | 0.00 | 0.00 | 0.00 | 66 | 1021.3 |
| 20260508073515 | 55 | 68 | 3.0 | 8.0 | 0.00 | 0.00 | 0.00 | 67 | 1021.3 |
| 20260508073320 | 55 | 45 | 3.0 | 8.0 | 0.00 | 0.00 | 0.00 | 67 | 1021.3 |
| 20260508073135 | 55 | 45 | 3.0 | 8.0 | 0.00 | 0.00 | 0.00 | 66 | 1021.2 |
| 20260508072940 | 55 | 68 | 4.0 | 8.0 | 0.00 | 0.00 | 0.00 | 68 | 1021.2 |
| 20260508072831 | 55 | 90 | 4.0 | 8.0 | 0.00 | 0.00 | 0.00 | 68 | 1021.3 |
| 20260508072803 | 55 | 90 | 4.0 | 8.0 | 0.00 | 0.00 | 0.00 | 67 | 1021.3 |
| 20260508072623 | 55 | 45 | 5.0 | 8.0 | 0.00 | 0.00 | 0.00 | 67 | 1021.3 |
| 20260508072433 | 55 | 22 | 5.0 | 9.0 | 0.00 | 0.00 | 0.00 | 70 | 1021.3 |
| 20260508072235 | 55 | 68 | 5.0 | 9.0 | 0.00 | 0.00 | 0.00 | 67 | 1021.2 |
| 20260508072047 | 55 | 68 | 5.0 | 9.0 | 0.00 | 0.00 | 0.00 | 69 | 1021.2 |
| 20260508071902 | 55 | 68 | 4.0 | 7.0 | 0.00 | 0.00 | 0.00 | 70 | 1021.2 |
| 20260508071725 | 56 | 45 | 4.0 | 7.0 | 0.00 | 0.00 | 0.00 | 68 | 1021.2 |
| 20260508071534 | 56 | 45 | 3.0 | 6.0 | 0.00 | 0.00 | 0.00 | 71 | 1021.2 |
| 20260508071345 | 56 | 45 | 3.0 | 6.0 | 0.00 | 0.00 | 0.00 | 68 | 1021.2 |
| 20260508071205 | 56 | 22 | 3.0 | 6.0 | 0.00 | 0.00 | 0.00 | 67 | 1021.2 |
| 20260508071015 | 56 | 90 | 3.0 | 7.0 | 0.00 | 0.00 | 0.00 | 68 | 1021.2 |
| 20260508070945 | 56 | 22 | 3.0 | 7.0 | 0.00 | 0.00 | 0.00 | 68 | 1021.1 |
| 20260508070837 | 56 | 68 | 3.0 | 7.0 | 0.00 | 0.00 | 0.00 | 68 | 1021.1 |
| 20260508070639 | 55 | 22 | 4.0 | 7.0 | 0.00 | 0.00 | 0.00 | 67 | 1021.2 |
| 20260508070500 | 54 | 22 | 3.0 | 6.0 | 0.00 | 0.00 | 0.00 | 66 | 1021.2 |
| 20260508070300 | 54 | 45 | 3.0 | 5.0 | 0.00 | 0.00 | 0.00 | 67 | 1021.2 |
| 20260508070110 | 53 | 292 | 3.0 | 6.0 | 0.00 | 0.00 | 0.00 | 70 | 1021.2 |
| 20260508065928 | 53 | 292 | 3.0 | 6.0 | 0.00 | 0.00 | 0.00 | 70 | 1021.2 |
| 20260508065740 | 52 | 22 | 3.0 | 6.0 | 0.00 | 0.00 | 0.00 | 71 | 1021.0 |
| 20260508065540 | 52 | 45 | 3.0 | 6.0 | 0.00 | 0.00 | 0.00 | 73 | 1021.1 |
| 20260508065400 | 51 | 68 | 2.0 | 5.0 | 0.00 | 0.00 | 0.00 | 75 | 1021.1 |
| 20260508065209 | 51 | 22 | 2.0 | 5.0 | 0.00 | 0.00 | 0.00 | 75 | 1021.2 |
| 20260508065110 | 51 | 22 | 2.0 | 5.0 | 0.00 | 0.00 | 0.00 | 76 | 1021.2 |
| 20260508065018 | 51 | 45 | 2.0 | 4.0 | 0.00 | 0.00 | 0.00 | 77 | 1021.1 |
| 20260508064837 | 51 | 45 | 2.0 | 6.0 | 0.00 | 0.00 | 0.00 | 77 | 1021.2 |
| 20260508064700 | 51 | 0 | 3.0 | 6.0 | 0.00 | 0.00 | 0.00 | 78 | 1021.2 |
| 20260508064500 | 50 | 22 | 3.0 | 6.0 | 0.00 | 0.00 | 0.00 | 78 | 1021.1 |
| 20260508064325 | 50 | 22 | 3.0 | 5.0 | 0.00 | 0.00 | 0.00 | 78 | 1021.1 |
| 20260508064135 | 50 | 68 | 3.0 | 5.0 | 0.00 | 0.00 | 0.00 | 79 | 1021.1 |
| 20260508063938 | 50 | 22 | 3.0 | 6.0 | 0.00 | 0.00 | 0.00 | 79 | 1021.1 |
| 20260508063753 | 50 | 22 | 3.0 | 6.0 | 0.00 | 0.00 | 0.00 | 79 | 1021.0 |
| 20260508063610 | 50 | 22 | 2.0 | 6.0 | 0.00 | 0.00 | 0.00 | 79 | 1021.0 |
| 20260508063458 | 50 | 45 | 2.0 | 5.0 | 0.00 | 0.00 | 0.00 | 80 | 1021.0 |
| 20260508063427 | 50 | 45 | 2.0 | 5.0 | 0.00 | 0.00 | 0.00 | 80 | 1021.0 |
| 20260508063250 | 50 | 45 | 2.0 | 5.0 | 0.00 | 0.00 | 0.00 | 79 | 1021.0 |
| 20260508063112 | 49 | 45 | 2.0 | 5.0 | 0.00 | 0.00 | 0.00 | 80 | 1021.0 |
| 20260508062930 | 49 | 68 | 2.0 | 5.0 | 0.00 | 0.00 | 0.00 | 80 | 1021.0 |
| 20260508062740 | 49 | 45 | 2.0 | 5.0 | 0.00 | 0.00 | 0.00 | 82 | 1021.0 |
| 20260508062545 | 49 | 45 | 3.0 | 5.0 | 0.00 | 0.00 | 0.00 | 82 | 1021.0 |
| 20260508062345 | 49 | 68 | 3.0 | 5.0 | 0.00 | 0.00 | 0.00 | 81 | 1020.9 |
| 20260508062205 | 49 | 90 | 3.0 | 6.0 | 0.00 | 0.00 | 0.00 | 81 | 1020.8 |
| 20260508062006 | 49 | 45 | 3.0 | 6.0 | 0.00 | 0.00 | 0.00 | 82 | 1020.9 |
| 20260508061820 | 49 | 22 | 3.0 | 6.0 | 0.00 | 0.00 | 0.00 | 82 | 1020.9 |
| 20260508061620 | 48 | 45 | 2.0 | 5.0 | 0.00 | 0.00 | 0.00 | 83 | 1020.8 |
| 20260508061420 | 48 | 22 | 2.0 | 5.0 | 0.00 | 0.00 | 0.00 | 83 | 1020.9 |
| 20260508061220 | 48 | 0 | 2.0 | 5.0 | 0.00 | 0.00 | 0.00 | 82 | 1020.8 |
| 20260508061030 | 48 | 68 | 2.0 | 5.0 | 0.00 | 0.00 | 0.00 | 83 | 1020.9 |
| 20260508060850 | 48 | 45 | 2.0 | 5.0 | 0.00 | 0.00 | 0.00 | 82 | 1020.8 |
| 20260508060703 | 48 | 45 | 2.0 | 4.0 | 0.00 | 0.00 | 0.00 | 82 | 1020.9 |
| 20260508060510 | 48 | 22 | 1.0 | 3.0 | 0.00 | 0.00 | 0.00 | 84 | 1020.8 |
| 20260508060315 | 48 | 22 | 1.0 | 5.0 | 0.00 | 0.00 | 0.00 | 84 | 1020.8 |
| 20260508060119 | 48 | 22 | 2.0 | 5.0 | 0.00 | 0.00 | 0.00 | 84 | 1020.9 |
| 20260508060022 | 48 | 45 | 1.0 | 5.0 | 0.00 | 0.00 | 0.00 | 84 | 1020.8 |
| 20260508055935 | 47 | 45 | 1.0 | 5.0 | 0.00 | 0.00 | 0.00 | 83 | 1020.8 |
| 20260508055734 | 47 | 90 | 1.0 | 5.0 | 0.00 | 0.00 | 0.00 | 84 | 1020.8 |
| 20260508055535 | 47 | 90 | 2.0 | 5.0 | 0.00 | 0.00 | 0.00 | 85 | 1020.8 |
| 20260508055335 | 47 | 45 | 2.0 | 5.0 | 0.00 | 0.00 | 0.00 | 84 | 1020.7 |
| 20260508055155 | 47 | 45 | 3.0 | 5.0 | 0.00 | 0.00 | 0.00 | 85 | 1020.8 |
| 20260508055016 | 47 | 22 | 3.0 | 5.0 | 0.00 | 0.00 | 0.00 | 86 | 1020.9 |
| 20260508054820 | 47 | 0 | 3.0 | 6.0 | 0.00 | 0.00 | 0.00 | 86 | 1020.8 |
| 20260508054617 | 47 | 68 | 3.0 | 8.0 | 0.00 | 0.00 | 0.00 | 85 | 1020.8 |
| 20260508054435 | 47 | 22 | 3.0 | 8.0 | 0.00 | 0.00 | 0.00 | 86 | 1020.7 |
| 20260508054245 | 47 | 22 | 3.0 | 8.0 | 0.00 | 0.00 | 0.00 | 86 | 1020.6 |
| 20260508054232 | 47 | 22 | 4.0 | 8.0 | 0.00 | 0.00 | 0.00 | 86 | 1020.7 |
| 20260508054100 | 47 | 22 | 3.0 | 6.0 | 0.00 | 0.00 | 0.00 | 86 | 1020.7 |
| 20260508053920 | 47 | 45 | 3.0 | 6.0 | 0.00 | 0.00 | 0.00 | 86 | 1020.6 |
| 20260508053725 | 47 | 45 | 3.0 | 5.0 | 0.00 | 0.00 | 0.00 | 86 | 1020.7 |
| 20260508053540 | 46 | 0 | 3.0 | 5.0 | 0.00 | 0.00 | 0.00 | 86 | 1020.8 |
| 20260508053400 | 46 | 45 | 3.0 | 5.0 | 0.00 | 0.00 | 0.00 | 86 | 1020.8 |
| 20260508053210 | 46 | 45 | 3.0 | 5.0 | 0.00 | 0.00 | 0.00 | 86 | 1020.7 |
| 20260508053033 | 46 | 45 | 3.0 | 5.0 | 0.00 | 0.00 | 0.00 | 86 | 1020.7 |
| 20260508052855 | 46 | 45 | 3.0 | 5.0 | 0.00 | 0.00 | 0.00 | 86 | 1020.7 |
| 20260508052700 | 46 | 68 | 3.0 | 5.0 | 0.00 | 0.00 | 0.00 | 86 | 1020.8 |
| 20260508052532 | 46 | 45 | 3.0 | 6.0 | 0.00 | 0.00 | 0.00 | 86 | 1020.8 |
| 20260508052505 | 46 | 45 | 3.0 | 6.0 | 0.00 | 0.00 | 0.00 | 86 | 1020.8 |
| 20260508052315 | 46 | 22 | 2.0 | 7.0 | 0.00 | 0.00 | 0.00 | 87 | 1020.7 |
| 20260508052135 | 46 | 22 | 3.0 | 7.0 | 0.00 | 0.00 | 0.00 | 87 | 1020.8 |
| 20260508051950 | 46 | 45 | 3.0 | 6.0 | 0.00 | 0.00 | 0.00 | 86 | 1020.7 |
| 20260508051809 | 46 | 45 | 2.0 | 5.0 | 0.00 | 0.00 | 0.00 | 87 | 1020.8 |
| 20260508051615 | 46 | 45 | 2.0 | 4.0 | 0.00 | 0.00 | 0.00 | 87 | 1020.6 |
| 20260508051415 | 46 | 338 | 2.0 | 4.0 | 0.00 | 0.00 | 0.00 | 87 | 1020.6 |
| 20260508051228 | 46 | 45 | 2.0 | 4.0 | 0.00 | 0.00 | 0.00 | 87 | 1020.6 |
| 20260508051032 | 46 | 68 | 2.0 | 3.0 | 0.00 | 0.00 | 0.00 | 88 | 1020.5 |
| 20260508050956 | 46 | 68 | 2.0 | 3.0 | 0.00 | 0.00 | 0.00 | 88 | 1020.6 |
| 20260508050855 | 46 | 68 | 2.0 | 4.0 | 0.00 | 0.00 | 0.00 | 87 | 1020.6 |
| 20260508050715 | 46 | 68 | 3.0 | 4.0 | 0.00 | 0.00 | 0.00 | 88 | 1020.6 |
| 20260508050529 | 46 | 68 | 3.0 | 5.0 | 0.00 | 0.00 | 0.00 | 88 | 1020.5 |
| 20260508050335 | 46 | 22 | 4.0 | 5.0 | 0.00 | 0.00 | 0.00 | 88 | 1020.5 |
| 20260508050135 | 46 | 292 | 3.0 | 5.0 | 0.00 | 0.00 | 0.00 | 88 | 1020.4 |
| 20260508045939 | 46 | 90 | 3.0 | 8.0 | 0.00 | 0.00 | 0.00 | 88 | 1020.5 |
| 20260508045745 | 46 | 22 | 3.0 | 8.0 | 0.00 | 0.00 | 0.00 | 88 | 1020.5 |
| 20260508045550 | 46 | 22 | 3.0 | 8.0 | 0.00 | 0.00 | 0.00 | 88 | 1020.5 |
| 20260508045355 | 46 | 22 | 3.0 | 5.0 | 0.00 | 0.00 | 0.00 | 89 | 1020.5 |
| 20260508045220 | 45 | 22 | 3.0 | 5.0 | 0.00 | 0.00 | 0.00 | 88 | 1020.4 |
| 20260508045131 | 45 | 22 | 4.0 | 5.0 | 0.00 | 0.00 | 0.00 | 88 | 1020.4 |
| 20260508045039 | 45 | 0 | 3.0 | 5.0 | 0.00 | 0.00 | 0.00 | 89 | 1020.5 |
| 20260508044845 | 45 | 338 | 3.0 | 8.0 | 0.00 | 0.00 | 0.00 | 89 | 1020.4 |
| 20260508044709 | 45 | 22 | 3.0 | 8.0 | 0.00 | 0.00 | 0.00 | 89 | 1020.4 |
| 20260508044518 | 45 | 22 | 4.0 | 8.0 | 0.00 | 0.00 | 0.00 | 89 | 1020.4 |
| 20260508044330 | 45 | 22 | 3.0 | 8.0 | 0.00 | 0.00 | 0.00 | 89 | 1020.4 |
| 20260508044137 | 45 | 68 | 3.0 | 6.0 | 0.00 | 0.00 | 0.00 | 89 | 1020.3 |
| 20260508043947 | 45 | 45 | 3.0 | 5.0 | 0.00 | 0.00 | 0.00 | 89 | 1020.3 |
| 20260508043810 | 45 | 45 | 3.0 | 7.0 | 0.00 | 0.00 | 0.00 | 89 | 1020.3 |
| 20260508043625 | 45 | 68 | 3.0 | 7.0 | 0.00 | 0.00 | 0.00 | 89 | 1020.3 |
| 20260508043438 | 45 | 45 | 2.0 | 7.0 | 0.00 | 0.00 | 0.00 | 89 | 1020.4 |
| 20260508043255 | 45 | 45 | 2.0 | 7.0 | 0.00 | 0.00 | 0.00 | 90 | 1020.4 |
| 20260508043241 | 45 | 22 | 2.0 | 7.0 | 0.00 | 0.00 | 0.00 | 90 | 1020.4 |
| 20260508043106 | 45 | 22 | 2.0 | 4.0 | 0.00 | 0.00 | 0.00 | 90 | 1020.4 |
| 20260508042930 | 45 | 45 | 2.0 | 5.0 | 0.00 | 0.00 | 0.00 | 90 | 1020.3 |
| 20260508042750 | 45 | 45 | 2.0 | 5.0 | 0.00 | 0.00 | 0.00 | 90 | 1020.4 |
| 20260508042610 | 45 | 45 | 2.0 | 5.0 | 0.00 | 0.00 | 0.00 | 90 | 1020.4 |
| 20260508042410 | 45 | 22 | 2.0 | 5.0 | 0.00 | 0.00 | 0.00 | 90 | 1020.4 |
| 20260508042209 | 45 | 68 | 1.0 | 4.0 | 0.00 | 0.00 | 0.00 | 90 | 1020.4 |
| 20260508042025 | 45 | 22 | 1.0 | 4.0 | 0.00 | 0.00 | 0.00 | 90 | 1020.4 |
| 20260508041845 | 45 | 22 | 1.0 | 4.0 | 0.00 | 0.00 | 0.00 | 90 | 1020.4 |
| 20260508041705 | 45 | 22 | 1.0 | 4.0 | 0.00 | 0.00 | 0.00 | 90 | 1020.4 |
| 20260508041601 | 45 | 22 | 2.0 | 4.0 | 0.00 | 0.00 | 0.00 | 90 | 1020.4 |
| 20260508041510 | 45 | 22 | 2.0 | 4.0 | 0.00 | 0.00 | 0.00 | 90 | 1020.3 |
| 20260508041330 | 45 | 22 | 2.0 | 4.0 | 0.00 | 0.00 | 0.00 | 90 | 1020.3 |
| 20260508041139 | 45 | 22 | 2.0 | 5.0 | 0.00 | 0.00 | 0.00 | 90 | 1020.3 |
| 20260508041000 | 45 | 22 | 2.0 | 5.0 | 0.00 | 0.00 | 0.00 | 90 | 1020.4 |
| 20260508040810 | 45 | 22 | 2.0 | 5.0 | 0.00 | 0.00 | 0.00 | 90 | 1020.3 |
| 20260508040630 | 45 | 22 | 2.0 | 5.0 | 0.00 | 0.00 | 0.00 | 90 | 1020.4 |
| 20260508040438 | 45 | 22 | 2.0 | 5.0 | 0.00 | 0.00 | 0.00 | 90 | 1020.3 |
| 20260508040253 | 45 | 22 | 2.0 | 4.0 | 0.00 | 0.00 | 0.00 | 90 | 1020.3 |
| 20260508040055 | 45 | 68 | 2.0 | 4.0 | 0.00 | 0.00 | 0.00 | 90 | 1020.3 |
| 20260508040036 | 45 | 22 | 2.0 | 4.0 | 0.00 | 0.00 | 0.00 | 90 | 1020.4 |
| 20260508035912 | 45 | 22 | 2.0 | 4.0 | 0.00 | 0.00 | 0.00 | 90 | 1020.3 |
| 20260508035733 | 45 | 22 | 2.0 | 4.0 | 0.00 | 0.00 | 0.00 | 90 | 1020.4 |
| 20260508035553 | 45 | 22 | 2.0 | 4.0 | 0.00 | 0.00 | 0.00 | 90 | 1020.3 |
| 20260508035359 | 45 | 22 | 1.0 | 3.0 | 0.00 | 0.00 | 0.00 | 90 | 1020.3 |
| 20260508035218 | 45 | 45 | 1.0 | 3.0 | 0.00 | 0.00 | 0.00 | 90 | 1020.3 |
| 20260508035025 | 45 | 45 | 1.0 | 2.0 | 0.00 | 0.00 | 0.00 | 90 | 1020.3 |
| 20260508034825 | 45 | 45 | 1.0 | 2.0 | 0.00 | 0.00 | 0.00 | 90 | 1020.2 |
| 20260508034627 | 45 | 45 | 1.0 | 2.0 | 0.00 | 0.00 | 0.00 | 90 | 1020.2 |
| 20260508034445 | 45 | 45 | 1.0 | 4.0 | 0.00 | 0.00 | 0.00 | 90 | 1020.1 |
| 20260508034246 | 45 | 22 | 2.0 | 4.0 | 0.00 | 0.00 | 0.00 | 90 | 1020.2 |
| 20260508034115 | 45 | 22 | 1.0 | 4.0 | 0.00 | 0.00 | 0.00 | 90 | 1020.1 |
| 20260508033915 | 45 | 68 | 1.0 | 2.0 | 0.00 | 0.00 | 0.00 | 90 | 1020.1 |
| 20260508033720 | 45 | 68 | 1.0 | 5.0 | 0.00 | 0.00 | 0.00 | 90 | 1020.1 |
| 20260508033530 | 45 | 68 | 2.0 | 5.0 | 0.00 | 0.00 | 0.00 | 90 | 1020.1 |
| 20260508033349 | 45 | 68 | 2.0 | 5.0 | 0.00 | 0.00 | 0.00 | 90 | 1020.0 |
| 20260508033209 | 45 | 22 | 2.0 | 5.0 | 0.00 | 0.00 | 0.00 | 90 | 1020.0 |
| 20260508033018 | 45 | 45 | 2.0 | 5.0 | 0.00 | 0.00 | 0.00 | 90 | 1020.0 |
| 20260508032825 | 45 | 22 | 2.0 | 5.0 | 0.00 | 0.00 | 0.00 | 90 | 1020.0 |
| 20260508032648 | 45 | 45 | 2.0 | 5.0 | 0.00 | 0.00 | 0.00 | 90 | 1020.1 |
| 20260508032524 | 45 | 68 | 2.0 | 5.0 | 0.00 | 0.00 | 0.00 | 90 | 1020.1 |
| 20260508032505 | 45 | 68 | 2.0 | 5.0 | 0.00 | 0.00 | 0.00 | 90 | 1020.1 |
| 20260508032315 | 45 | 45 | 2.0 | 5.0 | 0.00 | 0.00 | 0.00 | 90 | 1020.1 |
| 20260508032125 | 45 | 45 | 2.0 | 5.0 | 0.00 | 0.00 | 0.00 | 90 | 1020.1 |
| 20260508031930 | 45 | 45 | 1.0 | 5.0 | 0.00 | 0.00 | 0.00 | 91 | 1020.1 |
| 20260508031735 | 45 | 45 | 1.0 | 5.0 | 0.00 | 0.00 | 0.00 | 91 | 1020.1 |
| 20260508031545 | 45 | 22 | 1.0 | 5.0 | 0.00 | 0.00 | 0.00 | 91 | 1020.1 |
| 20260508031353 | 45 | 22 | 1.0 | 5.0 | 0.00 | 0.00 | 0.00 | 91 | 1020.1 |
| 20260508031209 | 45 | 22 | 1.0 | 5.0 | 0.00 | 0.00 | 0.00 | 91 | 1020.0 |
| 20260508031014 | 45 | 22 | 1.0 | 5.0 | 0.00 | 0.00 | 0.00 | 91 | 1020.0 |
| 20260508030830 | 45 | 45 | 1.0 | 5.0 | 0.00 | 0.00 | 0.00 | 91 | 1020.1 |
| 20260508030741 | 45 | 45 | 1.0 | 5.0 | 0.00 | 0.00 | 0.00 | 91 | 1020.1 |
| 20260508030646 | 45 | 45 | 1.0 | 5.0 | 0.00 | 0.00 | 0.00 | 91 | 1020.1 |
| 20260508030500 | 45 | 22 | 0.0 | 0.0 | 0.00 | 0.00 | 0.00 | 91 | 1020.1 |
| 20260508030310 | 45 | 22 | 0.0 | 2.0 | 0.00 | 0.00 | 0.00 | 91 | 1020.0 |
| 20260508030110 | 45 | 22 | 1.0 | 2.0 | 0.00 | 0.00 | 0.00 | 91 | 1020.0 |
| 20260508025930 | 44 | 22 | 1.0 | 2.0 | 0.00 | 0.00 | 0.00 | 91 | 1020.0 |
| 20260508025745 | 44 | 68 | 1.0 | 2.0 | 0.00 | 0.00 | 0.00 | 92 | 1020.0 |
| 20260508025545 | 44 | 68 | 1.0 | 3.0 | 0.00 | 0.00 | 0.00 | 92 | 1020.1 |
| 20260508025355 | 44 | 68 | 1.0 | 5.0 | 0.00 | 0.00 | 0.00 | 92 | 1020.1 |
| 20260508025215 | 44 | 22 | 1.0 | 3.0 | 0.00 | 0.00 | 0.00 | 92 | 1020.0 |
| 20260508025055 | 44 | 22 | 1.0 | 5.0 | 0.00 | 0.00 | 0.00 | 92 | 1020.0 |
| 20260508025030 | 44 | 22 | 1.0 | 5.0 | 0.00 | 0.00 | 0.00 | 92 | 1020.0 |
| 20260508024850 | 44 | 22 | 0.0 | 5.0 | 0.00 | 0.00 | 0.00 | 92 | 1020.1 |
| 20260508024705 | 44 | 22 | 0.0 | 5.0 | 0.00 | 0.00 | 0.00 | 92 | 1020.0 |
| 20260508024510 | 44 | 0 | 0.0 | 0.0 | 0.00 | 0.00 | 0.00 | 92 | 1020.0 |
| 20260508024331 | 44 | 0 | 0.0 | 0.0 | 0.00 | 0.00 | 0.00 | 92 | 1020.0 |
| 20260508024137 | 44 | 0 | 0.0 | 0.0 | 0.00 | 0.00 | 0.00 | 92 | 1020.0 |
| 20260508023955 | 44 | 0 | 0.0 | 0.0 | 0.00 | 0.00 | 0.00 | 93 | 1020.0 |
| 20260508023757 | 44 | 0 | 0.0 | 0.0 | 0.00 | 0.00 | 0.00 | 92 | 1019.9 |
| 20260508023609 | 44 | 0 | 0.0 | 0.0 | 0.00 | 0.00 | 0.00 | 93 | 1019.9 |
| 20260508023420 | 44 | 0 | 0.0 | 0.0 | 0.00 | 0.00 | 0.00 | 93 | 1020.0 |
| 20260508023316 | 44 | 0 | 0.0 | 0.0 | 0.00 | 0.00 | 0.00 | 93 | 1020.0 |
| 20260508023225 | 44 | 0 | 0.0 | 0.0 | 0.00 | 0.00 | 0.00 | 93 | 1019.9 |
| 20260508023040 | 44 | 0 | 0.0 | 0.0 | 0.00 | 0.00 | 0.00 | 93 | 1019.9 |
| 20260508022858 | 44 | 0 | 0.0 | 0.0 | 0.00 | 0.00 | 0.00 | 93 | 1019.9 |
| 20260508022717 | 44 | 0 | 0.0 | 0.0 | 0.00 | 0.00 | 0.00 | 93 | 1020.0 |
| 20260508022523 | 44 | 0 | 0.0 | 0.0 | 0.00 | 0.00 | 0.00 | 93 | 1019.9 |
| 20260508022344 | 44 | 0 | 0.0 | 0.0 | 0.00 | 0.00 | 0.00 | 93 | 1019.9 |
| 20260508022155 | 44 | 0 | 0.0 | 0.0 | 0.00 | 0.00 | 0.00 | 94 | 1019.9 |
| 20260508022015 | 44 | 0 | 0.0 | 0.0 | 0.00 | 0.00 | 0.00 | 94 | 1019.9 |
| 20260508021815 | 44 | 0 | 0.0 | 0.0 | 0.00 | 0.00 | 0.00 | 94 | 1019.9 |
| 20260508021630 | 44 | 0 | 0.0 | 0.0 | 0.00 | 0.00 | 0.00 | 94 | 1019.9 |
| 20260508021435 | 44 | 0 | 0.0 | 0.0 | 0.00 | 0.00 | 0.00 | 94 | 1019.9 |
| 20260508021244 | 44 | 0 | 0.0 | 0.0 | 0.00 | 0.00 | 0.00 | 94 | 1019.9 |
| 20260508021059 | 44 | 0 | 0.0 | 0.0 | 0.00 | 0.00 | 0.00 | 94 | 1019.9 |
| 20260508020905 | 44 | 0 | 0.0 | 0.0 | 0.00 | 0.00 | 0.00 | 94 | 1019.9 |
| 20260508020710 | 44 | 0 | 0.0 | 0.0 | 0.00 | 0.00 | 0.00 | 94 | 1020.0 |
| 20260508020530 | 44 | 0 | 0.0 | 0.0 | 0.00 | 0.00 | 0.00 | 94 | 1019.9 |
| 20260508020339 | 44 | 0 | 0.0 | 1.0 | 0.00 | 0.00 | 0.00 | 94 | 1020.0 |
| 20260508020155 | 44 | 0 | 0.0 | 2.0 | 0.00 | 0.00 | 0.00 | 94 | 1020.0 |
| 20260508020000 | 44 | 22 | 0.0 | 2.0 | 0.00 | 0.00 | 0.00 | 94 | 1020.0 |
| 20260508015826 | 44 | 22 | 0.0 | 2.0 | 0.00 | 0.00 | 0.00 | 94 | 1020.0 |
| 20260508015805 | 44 | 22 | 0.0 | 2.0 | 0.00 | 0.00 | 0.00 | 94 | 1020.0 |
| 20260508015605 | 44 | 22 | 0.0 | 2.0 | 0.00 | 0.00 | 0.00 | 94 | 1020.0 |
| 20260508015420 | 44 | 22 | 0.0 | 2.0 | 0.00 | 0.00 | 0.00 | 94 | 1020.0 |
| 20260508015234 | 44 | 22 | 0.0 | 2.0 | 0.00 | 0.00 | 0.00 | 94 | 1020.0 |
| 20260508015055 | 44 | 22 | 1.0 | 2.0 | 0.00 | 0.00 | 0.00 | 94 | 1020.0 |
| 20260508014915 | 44 | 22 | 0.0 | 2.0 | 0.00 | 0.00 | 0.00 | 94 | 1019.9 |
| 20260508014725 | 44 | 22 | 0.0 | 2.0 | 0.00 | 0.00 | 0.00 | 94 | 1020.0 |
| 20260508014539 | 44 | 22 | 0.0 | 2.0 | 0.00 | 0.00 | 0.00 | 94 | 1019.9 |
| 20260508014347 | 44 | 22 | 0.0 | 2.0 | 0.00 | 0.00 | 0.00 | 94 | 1020.0 |
| 20260508014158 | 44 | 22 | 0.0 | 2.0 | 0.00 | 0.00 | 0.00 | 94 | 1019.9 |
| 20260508014054 | 44 | 22 | 0.0 | 2.0 | 0.00 | 0.00 | 0.00 | 94 | 1020.0 |
| 20260508014005 | 44 | 0 | 0.0 | 0.0 | 0.00 | 0.00 | 0.00 | 94 | 1019.9 |
| 20260508013805 | 44 | 0 | 0.0 | 0.0 | 0.00 | 0.00 | 0.00 | 94 | 1019.9 |
| 20260508013610 | 44 | 0 | 0.0 | 0.0 | 0.00 | 0.00 | 0.00 | 94 | 1019.9 |
| 20260508013415 | 44 | 0 | 0.0 | 0.0 | 0.00 | 0.00 | 0.00 | 94 | 1019.9 |
| 20260508013230 | 44 | 0 | 0.0 | 0.0 | 0.00 | 0.00 | 0.00 | 94 | 1019.9 |
| 20260508013030 | 44 | 0 | 0.0 | 0.0 | 0.00 | 0.00 | 0.00 | 94 | 1019.8 |
| 20260508012849 | 44 | 0 | 0.0 | 0.0 | 0.00 | 0.00 | 0.00 | 94 | 1019.9 |
| 20260508012655 | 44 | 0 | 0.0 | 1.0 | 0.00 | 0.00 | 0.00 | 94 | 1019.8 |
| 20260508012513 | 44 | 0 | 0.0 | 1.0 | 0.00 | 0.00 | 0.00 | 94 | 1019.8 |
| 20260508012321 | 44 | 0 | 0.0 | 1.0 | 0.00 | 0.00 | 0.00 | 94 | 1019.8 |
| 20260508012140 | 44 | 0 | 0.0 | 1.0 | 0.00 | 0.00 | 0.00 | 94 | 1019.7 |
| 20260508011947 | 44 | 0 | 0.0 | 0.0 | 0.00 | 0.00 | 0.00 | 94 | 1019.9 |
| 20260508011803 | 44 | 0 | 0.0 | 0.0 | 0.00 | 0.00 | 0.00 | 94 | 1019.8 |
| 20260508011622 | 44 | 22 | 0.0 | 0.0 | 0.00 | 0.00 | 0.00 | 94 | 1019.8 |
| 20260508011439 | 44 | 22 | 0.0 | 0.0 | 0.00 | 0.00 | 0.00 | 94 | 1019.8 |
| 20260508011255 | 44 | 22 | 0.0 | 2.0 | 0.00 | 0.00 | 0.00 | 94 | 1019.8 |
| 20260508011110 | 44 | 22 | 0.0 | 3.0 | 0.00 | 0.00 | 0.00 | 94 | 1019.7 |
| 20260508010923 | 44 | 22 | 0.0 | 3.0 | 0.00 | 0.00 | 0.00 | 94 | 1019.8 |
| 20260508010725 | 44 | 0 | 0.0 | 0.0 | 0.00 | 0.00 | 0.00 | 94 | 1019.7 |
| 20260508010545 | 44 | 0 | 0.0 | 0.0 | 0.00 | 0.00 | 0.00 | 94 | 1019.7 |
| 20260508010345 | 44 | 0 | 0.0 | 0.0 | 0.00 | 0.00 | 0.00 | 93 | 1019.7 |
| 20260508010149 | 44 | 0 | 0.0 | 0.0 | 0.00 | 0.00 | 0.00 | 93 | 1019.7 |
| 20260508005950 | 44 | 0 | 0.0 | 0.0 | 0.00 | 0.00 | 0.00 | 93 | 1019.7 |
| 20260508005805 | 44 | 22 | 0.0 | 2.0 | 0.00 | 0.00 | 0.00 | 93 | 1019.6 |
| 20260508005615 | 44 | 22 | 0.0 | 2.0 | 0.00 | 0.00 | 0.00 | 93 | 1019.7 |
| 20260508005435 | 44 | 22 | 0.0 | 2.0 | 0.00 | 0.00 | 0.00 | 93 | 1019.6 |
| 20260508005250 | 44 | 22 | 0.0 | 2.0 | 0.00 | 0.00 | 0.00 | 93 | 1019.7 |
| 20260508005103 | 44 | 22 | 0.0 | 2.0 | 0.00 | 0.00 | 0.00 | 93 | 1019.6 |
| 20260508004925 | 44 | 0 | 0.0 | 2.0 | 0.00 | 0.00 | 0.00 | 93 | 1019.7 |
| 20260508004852 | 44 | 0 | 0.0 | 2.0 | 0.00 | 0.00 | 0.00 | 93 | 1019.7 |
| 20260508004745 | 44 | 0 | 0.0 | 0.0 | 0.00 | 0.00 | 0.00 | 93 | 1019.7 |
| 20260508004605 | 44 | 22 | 0.0 | 0.0 | 0.00 | 0.00 | 0.00 | 93 | 1019.7 |
| 20260508004418 | 44 | 22 | 0.0 | 0.0 | 0.00 | 0.00 | 0.00 | 93 | 1019.7 |
| 20260508004238 | 44 | 22 | 0.0 | 0.0 | 0.00 | 0.00 | 0.00 | 93 | 1019.7 |
| 20260508004055 | 44 | 22 | 0.0 | 2.0 | 0.00 | 0.00 | 0.00 | 93 | 1019.6 |
| 20260508003907 | 44 | 22 | 0.0 | 2.0 | 0.00 | 0.00 | 0.00 | 93 | 1019.7 |
| 20260508003720 | 44 | 22 | 0.0 | 2.0 | 0.00 | 0.00 | 0.00 | 93 | 1019.8 |
| 20260508003525 | 44 | 22 | 0.0 | 0.0 | 0.00 | 0.00 | 0.00 | 93 | 1019.6 |
| 20260508003344 | 44 | 22 | 0.0 | 2.0 | 0.00 | 0.00 | 0.00 | 93 | 1019.7 |
| 20260508003205 | 44 | 22 | 0.0 | 2.0 | 0.00 | 0.00 | 0.00 | 93 | 1019.6 |
| 20260508003010 | 44 | 22 | 0.0 | 2.0 | 0.00 | 0.00 | 0.00 | 93 | 1019.7 |
| 20260508002825 | 44 | 22 | 1.0 | 2.0 | 0.00 | 0.00 | 0.00 | 93 | 1019.6 |
| 20260508002625 | 44 | 22 | 1.0 | 1.0 | 0.00 | 0.00 | 0.00 | 93 | 1019.7 |
| 20260508002429 | 44 | 22 | 1.0 | 3.0 | 0.00 | 0.00 | 0.00 | 93 | 1019.7 |
| 20260508002240 | 44 | 22 | 1.0 | 5.0 | 0.00 | 0.00 | 0.00 | 93 | 1019.7 |
| 20260508002055 | 44 | 22 | 1.0 | 5.0 | 0.00 | 0.00 | 0.00 | 93 | 1019.7 |
| 20260508001915 | 44 | 22 | 1.0 | 5.0 | 0.00 | 0.00 | 0.00 | 93 | 1019.6 |
| 20260508001725 | 44 | 22 | 0.0 | 2.0 | 0.00 | 0.00 | 0.00 | 93 | 1019.7 |
| 20260508001545 | 44 | 22 | 0.0 | 2.0 | 0.00 | 0.00 | 0.00 | 93 | 1019.6 |
| 20260508001346 | 44 | 22 | 0.0 | 2.0 | 0.00 | 0.00 | 0.00 | 93 | 1019.7 |
| 20260508001311 | 44 | 22 | 0.0 | 2.0 | 0.00 | 0.00 | 0.00 | 93 | 1019.8 |
| 20260508001200 | 44 | 22 | 0.0 | 0.0 | 0.00 | 0.00 | 0.00 | 93 | 1019.7 |
| 20260508001019 | 44 | 22 | 0.0 | 2.0 | 0.00 | 0.00 | 0.00 | 93 | 1019.7 |
| 20260508000836 | 44 | 22 | 0.0 | 2.0 | 0.00 | 0.00 | 0.00 | 93 | 1019.7 |
| 20260508000700 | 44 | 22 | 1.0 | 2.0 | 0.00 | 0.00 | 0.00 | 93 | 1019.7 |
| 20260508000515 | 44 | 22 | 1.0 | 2.0 | 0.00 | 0.00 | 0.00 | 93 | 1019.7 |
| 20260508000320 | 44 | 22 | 1.0 | 2.0 | 0.00 | 0.00 | 0.00 | 94 | 1019.6 |
| 20260508000125 | 44 | 22 | 1.0 | 2.0 | 0.00 | 0.00 | 0.00 | 94 | 1019.7 |
| 20260507235925 | 44 | 22 | 1.0 | 2.0 | 0.00 | 0.00 | 0.00 | 94 | 1019.8 |
| 20260507235735 | 44 | 22 | 1.0 | 4.0 | 0.00 | 0.00 | 0.00 | 94 | 1019.7 |
| 20260507235549 | 44 | 22 | 0.0 | 4.0 | 0.00 | 0.00 | 0.00 | 94 | 1019.7 |
| 20260507235423 | 44 | 22 | 1.0 | 4.0 | 0.00 | 0.00 | 0.00 | 94 | 1019.7 |
| 20260507235355 | 44 | 22 | 1.0 | 4.0 | 0.00 | 0.00 | 0.00 | 94 | 1019.7 |
| 20260507235215 | 44 | 22 | 1.0 | 2.0 | 0.00 | 0.00 | 0.00 | 94 | 1019.7 |
| 20260507235014 | 44 | 22 | 0.0 | 3.0 | 0.00 | 0.00 | 0.00 | 95 | 1019.7 |
| 20260507234825 | 44 | 22 | 1.0 | 3.0 | 0.00 | 0.00 | 0.00 | 95 | 1019.7 |
| 20260507234626 | 44 | 22 | 1.0 | 2.0 | 0.00 | 0.00 | 0.00 | 95 | 1019.7 |
| 20260507234429 | 44 | 22 | 1.0 | 3.0 | 0.00 | 0.00 | 0.00 | 95 | 1019.7 |
| 20260507234245 | 44 | 45 | 1.0 | 3.0 | 0.00 | 0.00 | 0.00 | 95 | 1019.7 |
| 20260507234043 | 44 | 45 | 0.0 | 2.0 | 0.00 | 0.00 | 0.00 | 95 | 1019.7 |
| 20260507233900 | 44 | 45 | 0.0 | 2.0 | 0.00 | 0.00 | 0.00 | 95 | 1019.7 |
| 20260507233725 | 44 | 45 | 0.0 | 2.0 | 0.00 | 0.00 | 0.00 | 95 | 1019.8 |
| 20260507233634 | 44 | 45 | 0.0 | 2.0 | 0.00 | 0.00 | 0.00 | 95 | 1019.7 |
| 20260507233535 | 44 | 45 | 0.0 | 2.0 | 0.00 | 0.00 | 0.00 | 95 | 1019.7 |
| 20260507233352 | 44 | 45 | 0.0 | 2.0 | 0.00 | 0.00 | 0.00 | 95 | 1019.8 |
| 20260507233155 | 44 | 45 | 0.0 | 2.0 | 0.00 | 0.00 | 0.00 | 95 | 1019.8 |
| 20260507233015 | 44 | 0 | 0.0 | 1.0 | 0.00 | 0.00 | 0.00 | 95 | 1019.8 |
| 20260507232829 | 44 | 0 | 0.0 | 1.0 | 0.00 | 0.00 | 0.00 | 95 | 1019.8 |
| 20260507232640 | 44 | 0 | 0.0 | 1.0 | 0.00 | 0.00 | 0.00 | 94 | 1019.8 |
| 20260507232450 | 44 | 0 | 0.0 | 1.0 | 0.00 | 0.00 | 0.00 | 94 | 1019.7 |
| 20260507232306 | 44 | 0 | 0.0 | 0.0 | 0.00 | 0.00 | 0.00 | 94 | 1019.8 |
| 20260507232129 | 44 | 0 | 0.0 | 0.0 | 0.00 | 0.00 | 0.00 | 94 | 1019.8 |
| 20260507231944 | 44 | 0 | 0.0 | 0.0 | 0.00 | 0.00 | 0.00 | 94 | 1019.8 |
| 20260507231835 | 44 | 45 | 0.0 | 0.0 | 0.00 | 0.00 | 0.00 | 94 | 1019.7 |
| 20260507231744 | 44 | 45 | 0.0 | 0.0 | 0.00 | 0.00 | 0.00 | 94 | 1019.7 |
| 20260507231605 | 44 | 45 | 0.0 | 2.0 | 0.00 | 0.00 | 0.00 | 94 | 1019.8 |
| 20260507231410 | 44 | 45 | 0.0 | 2.0 | 0.00 | 0.00 | 0.00 | 94 | 1019.7 |
| 20260507231228 | 44 | 45 | 0.0 | 2.0 | 0.00 | 0.00 | 0.00 | 94 | 1019.8 |
| 20260507231040 | 44 | 45 | 0.0 | 2.0 | 0.00 | 0.00 | 0.00 | 94 | 1019.8 |
| 20260507230855 | 44 | 45 | 0.0 | 2.0 | 0.00 | 0.00 | 0.00 | 94 | 1019.8 |
| 20260507230715 | 44 | 0 | 0.0 | 2.0 | 0.00 | 0.00 | 0.00 | 94 | 1019.8 |
| 20260507230532 | 44 | 0 | 0.0 | 2.0 | 0.00 | 0.00 | 0.00 | 94 | 1019.7 |
| 20260507230340 | 44 | 0 | 0.0 | 2.0 | 0.00 | 0.00 | 0.00 | 94 | 1019.8 |
| 20260507230313 | 44 | 0 | 0.0 | 2.0 | 0.00 | 0.00 | 0.00 | 94 | 1019.8 |
| 20260507230155 | 44 | 0 | 0.0 | 0.0 | 0.00 | 0.00 | 0.00 | 94 | 1019.7 |
| 20260507230015 | 44 | 0 | 0.0 | 0.0 | 0.00 | 0.00 | 0.00 | 93 | 1019.8 |
| 20260507225829 | 45 | 0 | 0.0 | 0.0 | 0.00 | 0.00 | 0.00 | 93 | 1019.7 |
| 20260507225635 | 45 | 0 | 0.0 | 0.0 | 0.00 | 0.00 | 0.00 | 93 | 1019.7 |
| 20260507225443 | 45 | 0 | 0.0 | 0.0 | 0.00 | 0.00 | 0.00 | 93 | 1019.7 |
| 20260507225255 | 45 | 0 | 0.0 | 2.0 | 0.00 | 0.00 | 0.00 | 93 | 1019.7 |
| 20260507225115 | 45 | 45 | 0.0 | 2.0 | 0.00 | 0.00 | 0.00 | 93 | 1019.7 |
| 20260507224912 | 45 | 45 | 0.0 | 2.0 | 0.00 | 0.00 | 0.00 | 92 | 1019.8 |
| 20260507224735 | 45 | 0 | 0.0 | 0.0 | 0.00 | 0.00 | 0.00 | 92 | 1019.7 |
| 20260507224607 | 45 | 0 | 0.0 | 1.0 | 0.00 | 0.00 | 0.00 | 92 | 1019.8 |
| 20260507224548 | 45 | 45 | 0.0 | 1.0 | 0.00 | 0.00 | 0.00 | 92 | 1019.8 |
| 20260507224405 | 45 | 45 | 0.0 | 1.0 | 0.00 | 0.00 | 0.00 | 92 | 1019.8 |
| 20260507224225 | 46 | 45 | 1.0 | 0.0 | 0.00 | 0.00 | 0.00 | 92 | 1019.8 |
| 20260507224035 | 46 | 45 | 1.0 | 2.0 | 0.00 | 0.00 | 0.00 | 92 | 1019.7 |
| 20260507223850 | 46 | 45 | 1.0 | 2.0 | 0.00 | 0.00 | 0.00 | 91 | 1019.6 |
| 20260507223705 | 46 | 45 | 1.0 | 2.0 | 0.00 | 0.00 | 0.00 | 91 | 1019.7 |
| 20260507223505 | 46 | 45 | 1.0 | 2.0 | 0.00 | 0.00 | 0.00 | 91 | 1019.6 |
| 20260507223315 | 46 | 45 | 1.0 | 2.0 | 0.00 | 0.00 | 0.00 | 91 | 1019.6 |
| 20260507223118 | 46 | 45 | 0.0 | 2.0 | 0.00 | 0.00 | 0.00 | 91 | 1019.6 |
| 20260507223043 | 46 | 45 | 0.0 | 2.0 | 0.00 | 0.00 | 0.00 | 91 | 1019.6 |
| 20260507222935 | 46 | 45 | 0.0 | 2.0 | 0.00 | 0.00 | 0.00 | 91 | 1019.6 |
| 20260507222739 | 46 | 45 | 1.0 | 2.0 | 0.00 | 0.00 | 0.00 | 91 | 1019.6 |
| 20260507222549 | 46 | 45 | 1.0 | 2.0 | 0.00 | 0.00 | 0.00 | 90 | 1019.5 |
| 20260507222409 | 46 | 45 | 1.0 | 2.0 | 0.00 | 0.00 | 0.00 | 90 | 1019.5 |
| 20260507222229 | 46 | 45 | 1.0 | 2.0 | 0.00 | 0.00 | 0.00 | 90 | 1019.5 |
| 20260507222048 | 47 | 45 | 1.0 | 2.0 | 0.00 | 0.00 | 0.00 | 89 | 1019.6 |
| 20260507221900 | 47 | 45 | 1.0 | 2.0 | 0.00 | 0.00 | 0.00 | 89 | 1019.6 |
| 20260507221720 | 47 | 45 | 1.0 | 2.0 | 0.00 | 0.00 | 0.00 | 89 | 1019.6 |
| 20260507221545 | 47 | 45 | 1.0 | 2.0 | 0.00 | 0.00 | 0.00 | 89 | 1019.6 |
| 20260507221352 | 47 | 45 | 1.0 | 2.0 | 0.00 | 0.00 | 0.00 | 89 | 1019.6 |
| 20260507221209 | 47 | 45 | 1.0 | 2.0 | 0.00 | 0.00 | 0.00 | 89 | 1019.5 |
| 20260507221025 | 47 | 45 | 1.0 | 2.0 | 0.00 | 0.00 | 0.00 | 89 | 1019.5 |
| 20260507220840 | 47 | 45 | 1.0 | 2.0 | 0.00 | 0.00 | 0.00 | 89 | 1019.5 |
| 20260507220700 | 47 | 45 | 1.0 | 2.0 | 0.00 | 0.00 | 0.00 | 89 | 1019.5 |